GFSGL_con_lsi_075.txt.gz
Lid_Strength_Index
2 2 2 1 2 2 2 2 2 0 0 1 1 0 0 0 0 1 0 1 1 2 3 3 4 6 6 6 5 5 5 5 6 5 5 5 5 4 4 4 5 6 7
3 2 2 2 2 2 3 2 1 1 1 0 0 0 0 1 1 2 2 2 3 4 5 5 5 6 6 6 6 6 5 5 6 7 7 5 7 5 6 7 8 9 9
4 3 2 2 2 2 2 1 2 0 1 0 0 1 1 0 1 1 2 4 4 4 4 5 6 6 7 6 6 6 6 6 7 8 9 6 8 7 8 10 10 11 10
3 4 4 3 2 2 2 1 1 1 1 1 1 1 1 0 1 2 3 4 4 5 6 6 6 6 7 7 7 8 9 10 10 11 11 9 9 9 10 12 12 11 11
3 3 4 3 3 2 2 2 1 1 1 1 1 2 2 3 3 4 3 4 5 7 7 7 8 7 8 8 9 9 11 12 12 13 12 11 11 12 13 12 13 12 11
3 3 3 3 3 4 3 2 2 1 1 1 1 1 3 3 8 8 6 6 7 8 10 11 10 11 12 12 12 11 11 12 13 12 12 12 12 12 12 13 13 13 14
2 2 3 3 3 3 3 3 3 2 1 2 2 3 4 5 10 10 10 8 8 10 12 13 13 13 14 13 14 13 13 14 13 12 12 13 13 12 13 13 13 13 13
2 3 3 3 3 3 3 2 2 2 2 4 6 6 7 8 12 11 11 10 12 13 13 13 14 14 14 14 14 15 14 13 13 13 12 12 13 12 13 13 13 13 12
3 2 3 3 3 3 3 4 6 6 7 7 8 8 10 12 12 13 12 13 14 15 14 15 15 15 14 13 15 15 15 14 14 15 15 15 15 15 14 13 14 15 15
3 2 2 2 5 6 7 7 8 8 9 10 11 10 12 12 13 13 13 15 16 16 16 16 14 14 14 14 14 15 15 15 15 15 15 15 15 15 16 14 14 15 15
3 4 5 5 6 6 8 9 10 11 12 13 14 13 13 13 13 13 13 14 16 17 17 16 15 14 14 14 15 14 15 15 17 16 16 16 16 16 16 16 15 15 15
5 6 7 7 8 8 10 11 12 13 14 15 16 16 16 15 15 14 15 15 16 16 16 16 15 15 15 15 15 16 17 17 16 17 17 17 18 17 16 16 16 15 14
8 8 9 10 10 11 12 13 14 14 14 14 16 17 17 16 16 15 16 15 15 17 17 16 15 15 16 16 16 17 18 17 18 18 18 19 18 17 17 16 16 15 14
9 10 11 12 13 12 12 13 14 14 14 15 16 17 18 18 18 18 17 17 17 16 16 15 15 16 16 17 17 17 17 18 18 18 19 18 18 18 18 17 17 16 16
11 12 13 13 14 15 15 14 14 14 14 15 16 17 18 19 18 17 17 17 16 17 16 16 17 17 18 18 18 18 18 18 18 18 19 19 19 19 18 17 17 16 17
13 13 14 14 15 15 16 16 15 15 15 15 16 17 17 17 16 16 16 16 17 17 17 18 18 18 18 18 18 18 18 20 19 19 19 20 20 20 19 18 17 17 17
14 15 15 15 15 16 16 17 18 16 15 15 15 16 16 15 15 15 16 16 16 17 18 18 18 19 19 19 18 19 19 19 20 20 21 20 20 20 20 19 18 17 17
16 16 17 17 17 17 17 17 18 18 19 18 16 16 16 15 15 16 16 16 17 17 17 18 18 18 19 19 19 20 20 20 21 21 21 20 20 20 20 19 18 18 17
17 17 16 16 16 17 17 17 17 17 17 17 16 16 15 15 16 16 16 16 17 17 18 18 18 19 19 19 20 20 21 21 21 21 21 21 20 20 20 19 18 18 17
17 17 17 17 17 17 16 16 16 16 16 16 16 17 16 16 17 17 17 17 18 18 18 19 19 19 20 20 21 21 21 21 21 20 20 20 19 19 18 18 17 17 16
19 18 18 18 17 18 17 17 17 17 18 18 17 18 18 18 18 19 19 19 19 20 20 20 20 21 20 21 21 21 21 21 21 20 19 19 18 19 18 17 16 16 16
18 18 18 18 18 18 18 18 18 18 18 18 19 20 20 20 20 21 21 21 21 21 21 21 21 21 21 22 22 22 21 21 20 20 19 19 19 18 17 17 17 16 15
19 19 19 19 19 20 20 20 20 20 21 21 21 21 21 21 22 22 22 22 22 22 22 22 22 23 21 21 21 21 21 21 20 19 20 19 18 18 17 17 17 16 15
20 20 21 22 22 22 22 22 22 23 22 22 22 22 23 23 23 24 24 23 23 23 23 23 23 23 23 22 21 20 20 20 20 19 19 19 19 18 17 16 15 15 14
22 23 23 24 24 24 24 24 24 24 24 24 24 23 23 24 24 24 24 24 24 23 23 23 23 22 22 23 23 22 22 22 21 21 20 19 18 18 17 16 15 14 13
24 24 24 24 25 25 25 26 26 26 26 25 25 25 25 24 24 24 24 24 24 23 23 22 22 23 23 22 21 21 23 23 22 21 19 18 17 16 15 14 14 13 13

GFSGL_con_lsi_078.txt.gz
Lid_Strength_Index
1 1 1 1 0 0 0 0 -0 -0 -0 -0 -0 -0 -0 -0 -0 -0 -0 -0 0 0 0 1 1 2 3 3 4 4 5 4 5 5 3 3 3 2 4 3 2 3 3
1 1 1 1 0 1 1 0 -0 0 -0 -0 -0 -0 0 -0 -0 0 0 0 1 1 1 2 2 3 4 4 5 4 5 5 5 5 5 4 4 4 5 3 4 5 6
1 1 1 1 1 1 1 0 0 0 0 -0 0 0 0 0 0 -0 0 1 1 0 1 3 4 5 4 5 6 5 5 6 5 4 8 7 7 6 7 6 6 7 8
1 2 2 1 1 1 0 0 0 -0 0 0 0 0 0 0 0 0 0 1 0 0 1 3 4 5 5 6 6 6 6 6 9 8 8 8 8 8 8 9 8 8 8
2 2 2 2 1 1 1 1 0 0 0 0 0 0 0 0 0 1 1 1 1 2 3 4 4 5 7 6 6 8 9 9 11 10 10 11 10 10 11 9 10 9 9
2 2 1 1 2 2 1 1 1 1 0 0 1 1 1 1 5 7 3 1 2 3 6 7 7 8 10 10 10 10 9 11 10 9 10 12 11 10 10 10 10 11 11
2 2 2 1 1 1 1 2 2 1 1 1 1 1 1 0 8 9 9 1 3 5 8 11 11 11 11 13 14 14 15 15 14 11 11 11 11 10 11 11 11 11 11
2 2 2 2 2 1 1 2 2 2 2 1 1 1 1 1 10 10 10 6 8 9 11 11 13 14 14 15 15 16 15 15 14 13 12 12 11 11 11 11 11 11 11
2 2 2 2 2 2 2 2 1 2 2 2 2 2 3 7 12 12 10 12 13 14 13 14 14 15 15 14 15 16 16 16 14 14 15 15 15 15 14 12 13 13 13
2 2 1 1 2 2 2 2 3 2 4 8 9 9 10 11 12 12 11 14 15 16 15 16 15 15 15 15 16 16 17 15 15 16 15 15 15 14 16 14 13 14 14
1 1 1 1 2 1 2 4 6 9 11 13 14 13 13 13 13 13 13 14 15 16 16 16 16 15 15 15 15 14 14 14 16 15 14 14 14 14 14 13 14 14 15
2 2 2 2 4 5 7 9 11 12 14 15 15 16 15 15 14 14 14 15 15 16 17 16 16 16 16 16 16 16 17 16 15 14 15 15 15 15 14 14 14 14 14
3 5 7 7 8 9 10 11 13 13 14 15 16 16 16 15 15 14 15 15 16 17 16 16 15 16 16 17 17 18 17 15 15 16 16 16 15 15 15 15 15 15 14
9 10 11 12 12 13 13 12 13 14 15 15 16 17 17 17 17 17 17 17 17 17 16 16 16 16 16 16 17 17 16 15 16 16 16 16 15 16 16 16 16 16 16
12 12 13 14 15 16 16 14 14 14 13 15 16 17 18 19 18 17 17 17 17 17 16 16 17 17 17 16 16 16 16 16 16 16 16 16 17 17 17 16 17 17 17
13 14 15 15 15 16 16 17 16 15 15 15 16 17 17 17 16 16 16 16 16 16 16 16 16 15 16 16 16 16 16 18 16 17 17 17 18 18 18 17 17 17 17
15 14 15 15 16 16 17 17 18 17 16 16 16 16 16 16 16 16 16 16 17 17 16 16 16 16 16 16 16 16 17 17 18 18 18 18 18 18 19 18 18 17 17
15 16 16 16 17 17 17 18 18 19 19 18 16 16 16 16 16 16 16 17 17 16 16 16 16 16 16 16 17 17 18 18 18 19 19 19 19 19 20 19 18 18 17
15 16 16 17 17 17 17 18 18 18 18 18 17 16 16 16 16 16 15 14 15 16 16 16 16 17 17 17 18 19 19 19 20 20 20 20 20 20 19 18 17 17 16
17 17 17 17 17 17 17 17 17 17 17 17 17 17 16 15 16 16 16 16 16 16 16 17 18 18 18 19 19 19 19 19 20 20 20 20 19 18 18 17 17 16 15
17 17 17 17 17 17 17 16 17 17 18 18 19 17 16 16 17 17 17 18 18 19 19 19 19 19 19 20 20 20 20 20 20 20 20 19 18 19 17 17 16 16 15
17 17 18 18 18 18 18 18 18 17 18 18 19 18 18 18 18 19 19 20 20 19 19 20 20 20 20 20 21 21 21 21 20 19 19 19 18 18 17 17 16 16 15
18 18 18 19 19 19 18 18 18 19 19 19 19 19 19 19 20 20 20 20 20 21 21 20 21 21 20 20 20 20 20 20 19 19 20 19 19 18 17 17 17 16 15
19 19 20 20 20 20 20 20 20 21 20 20 20 20 20 21 21 22 21 21 21 21 21 22 21 21 21 21 19 19 19 19 19 19 19 19 18 18 17 16 16 15 14
20 20 21 21 21 21 21 21 21 21 21 21 21 21 21 21 22 22 22 22 23 22 22 21 21 21 21 21 21 20 20 21 20 20 19 19 18 17 16 15 15 13 13
21 21 22 21 21 21 22 22 22 22 22 22 22 22 22 22 22 22 22 22 23 22 21 20 20 20 21 20 19 20 21 22 21 21 19 17 16 15 14 13 13 12 12

GFSGL_con_lsi_081.txt.gz
Lid_Strength_Index
1 1 1 1 1 1 1 1 0 0 0 0 0 0 0 0 -0 0 0 0 1 0 0 1 1 0 1 1 0 2 3 4 5 4 2 2 4 3 5 3 3 3 3
1 1 1 1 1 1 1 0 0 0 0 0 0 0 0 0 0 0 1 0 1 1 1 1 1 1 1 1 2 3 4 4 5 5 5 4 4 3 4 4 4 4 4
1 1 1 1 1 1 1 0 0 0 0 0 0 1 1 0 0 0 0 1 1 1 1 1 1 1 1 2 3 4 4 4 4 5 6 6 5 5 5 6 8 6 6
1 1 2 1 1 1 1 1 1 0 1 0 0 0 0 0 0 0 0 1 1 1 0 1 1 1 1 3 4 4 4 6 6 6 8 8 8 8 8 9 9 7 9
2 2 2 1 1 1 1 1 1 1 1 0 1 0 0 0 1 0 1 1 1 1 1 1 1 1 5 4 4 5 6 7 8 8 11 10 11 11 11 10 11 11 10
2 2 1 1 1 1 1 1 1 1 1 1 1 1 1 1 5 7 3 1 1 1 2 2 3 6 6 8 9 9 7 7 9 10 11 11 11 11 12 13 12 12 11
2 2 2 1 2 1 1 1 1 1 1 1 1 1 1 1 7 8 8 1 1 1 2 2 6 7 9 11 14 14 14 13 13 11 12 13 13 13 12 13 11 11 11
2 2 2 2 2 1 1 2 1 1 1 1 1 1 1 1 8 8 9 3 2 2 3 5 8 10 11 13 14 15 15 15 14 13 14 14 13 12 12 12 10 11 11
2 2 2 2 2 2 2 2 2 2 2 2 1 1 1 1 11 10 9 6 10 12 12 12 12 14 14 13 15 16 16 16 15 15 15 16 16 15 15 12 13 14 13
2 2 1 1 2 2 2 2 1 1 2 2 2 5 9 4 11 11 10 12 14 15 15 15 15 15 15 15 15 16 17 18 17 17 17 17 17 16 16 15 14 14 14
1 1 2 1 2 1 1 1 2 3 7 10 12 13 13 12 12 12 12 13 15 16 17 16 15 15 15 15 15 16 16 16 16 16 16 15 14 14 15 15 14 14 15
2 2 2 2 2 2 2 3 6 9 12 15 15 16 15 15 15 14 14 15 15 17 17 17 16 16 16 16 17 16 15 16 15 15 16 16 16 15 15 14 14 14 14
3 5 7 8 8 8 8 9 11 11 13 15 16 17 17 16 16 15 15 16 16 16 16 16 16 16 17 17 18 18 16 16 16 17 16 16 15 15 15 15 15 14 14
9 10 10 11 12 12 12 12 12 13 14 16 17 18 18 18 17 17 16 16 16 16 17 17 17 17 17 18 18 17 16 16 17 17 17 16 15 15 15 15 16 15 16
12 13 14 14 16 16 16 16 16 15 15 16 17 17 18 19 18 17 17 17 16 16 17 17 17 17 18 17 17 17 17 17 17 17 17 17 16 16 16 16 16 16 17
15 15 15 16 16 17 18 18 16 16 16 16 16 17 17 17 17 17 16 16 16 16 17 17 17 17 16 16 17 17 17 18 17 17 18 17 17 18 17 17 17 18 18
15 15 16 16 16 17 17 18 19 17 16 16 16 16 16 16 16 16 16 17 17 16 16 16 16 16 17 17 17 17 17 18 18 18 18 18 18 18 19 19 19 18 18
15 15 16 17 17 17 17 18 18 19 19 19 17 17 17 16 16 17 16 16 16 16 16 17 17 17 17 18 18 18 17 17 17 18 19 19 19 19 20 20 19 19 19
16 16 16 17 17 17 17 17 18 18 19 18 18 17 16 16 15 15 15 15 16 17 16 17 16 16 17 17 17 18 18 19 19 19 19 19 20 20 20 20 20 20 19
16 17 17 16 16 16 16 16 16 17 18 18 18 18 16 16 17 17 16 16 17 17 17 18 18 18 18 18 18 18 19 19 19 20 20 20 20 20 21 20 20 19 19
16 16 16 16 16 16 16 17 17 18 18 19 18 18 17 18 19 19 19 19 19 19 19 19 19 19 19 19 19 20 20 20 20 21 21 21 21 21 20 19 19 18 18
16 16 16 16 17 17 17 17 17 18 18 19 19 18 18 18 19 19 20 20 20 19 19 19 19 19 20 20 20 21 21 21 21 21 21 21 20 20 19 19 18 18 17
16 17 17 18 18 18 18 18 19 19 19 19 19 19 19 20 20 20 20 20 20 20 21 21 20 21 20 21 20 20 21 20 20 20 21 20 20 19 18 18 18 18 17
17 18 18 19 19 19 19 19 19 20 20 20 20 20 21 21 21 21 21 21 21 21 21 21 21 21 21 21 20 20 20 20 20 20 20 20 19 18 18 18 17 17 16
18 19 19 19 20 20 20 20 20 20 20 20 20 20 20 20 21 21 21 21 22 22 21 21 20 21 21 22 21 21 20 21 21 22 21 19 19 18 17 16 15 14 13
19 20 20 20 20 20 20 21 21 21 21 20 20 20 20 21 21 21 21 21 22 22 21 20 20 20 21 20 19 20 22 22 22 21 21 19 18 16 14 14 14 13 13

GFSGL_con_lsi_084.txt.gz
Lid_Strength_Index
2 1 1 1 1 1 1 1 2 2 2 2 2 2 2 1 1 1 1 1 1 1 1 1 1 1 1 1 1 1 2 2 4 3 4 4 3 5 7 7 6 7 8
2 2 2 1 1 1 1 1 1 1 1 2 2 2 2 2 2 2 2 1 2 2 1 1 2 1 1 1 2 2 2 2 3 5 4 5 5 5 7 7 6 5 6
2 2 2 2 2 2 1 1 1 1 1 1 1 1 1 1 2 2 2 1 1 1 1 1 2 2 2 2 1 2 2 3 3 4 4 6 6 6 7 7 7 8 8
2 2 2 2 2 2 1 1 1 1 1 1 1 1 1 1 1 1 1 1 1 1 1 1 1 2 2 2 2 3 3 4 4 5 5 7 8 8 8 9 10 9 10
2 2 2 2 2 1 1 1 1 1 1 1 1 1 1 1 1 1 1 1 1 1 1 1 1 2 5 3 2 3 4 5 5 6 8 10 11 11 9 9 10 11 11
2 2 2 2 2 2 2 2 1 1 1 1 1 1 1 1 5 7 3 1 1 2 2 2 1 6 6 8 7 7 5 5 6 6 6 8 9 10 11 12 14 14 15
2 2 2 2 2 2 2 2 2 2 1 2 2 1 2 1 7 8 8 2 2 2 2 2 4 6 7 6 11 12 13 12 13 7 8 11 13 13 13 14 14 14 14
3 2 2 2 2 2 2 2 2 2 2 2 2 2 2 1 8 9 9 4 2 2 3 4 4 8 8 10 12 13 14 14 14 13 13 14 13 12 12 13 13 13 13
3 2 2 2 2 2 2 2 2 2 2 2 2 2 2 2 8 9 9 4 3 8 11 11 10 12 12 11 13 15 16 17 15 14 14 14 14 14 14 14 15 16 16
2 2 2 2 2 2 2 2 2 2 2 2 2 6 10 4 12 12 10 9 13 14 14 15 14 14 14 13 14 15 17 18 17 17 17 17 16 15 16 16 15 16 16
2 2 2 2 2 2 2 2 2 2 6 10 13 13 11 11 12 12 12 13 14 16 16 16 15 15 15 15 15 16 17 17 17 16 16 16 16 16 16 16 16 16 16
4 5 6 7 6 4 3 7 8 10 13 15 16 16 15 15 14 14 14 14 15 16 17 17 16 16 16 16 16 16 16 16 17 17 17 17 17 16 16 16 16 16 15
9 10 11 11 11 11 9 10 11 12 14 16 16 17 18 16 16 15 15 16 16 17 16 16 16 16 16 17 16 16 16 16 17 17 17 17 17 17 17 16 16 16 15
12 13 13 15 15 15 15 14 14 15 15 16 16 18 18 18 18 17 17 17 17 17 18 18 18 19 19 18 17 17 17 18 18 18 18 17 17 17 17 17 17 17 17
13 14 15 15 16 17 17 17 16 16 15 16 17 18 19 19 19 17 17 18 18 18 18 18 19 19 19 18 17 18 18 17 18 18 18 18 18 17 18 17 18 19 20
13 15 15 15 16 17 18 18 16 16 17 17 17 17 17 16 16 16 16 17 17 17 18 18 18 18 18 18 18 18 18 18 18 18 18 18 19 19 19 18 18 19 20
14 14 16 16 17 17 18 18 19 18 16 16 16 16 16 16 16 16 16 16 15 16 18 18 18 18 18 18 18 18 19 19 18 19 19 20 20 20 20 20 20 20 21
15 15 16 16 17 17 18 18 18 19 20 18 17 17 16 16 16 15 16 16 18 18 18 18 19 19 18 19 19 19 19 20 21 21 22 23 23 22 22 22 22 22 22
14 15 15 16 16 17 17 17 19 19 19 19 18 18 17 17 17 17 17 18 19 19 19 19 19 19 19 19 20 20 20 22 23 24 22 22 24 23 25 23 23 24 23
15 15 15 15 15 16 17 17 18 18 18 18 18 18 18 19 20 20 20 20 20 19 20 20 20 20 20 20 21 21 22 23 23 23 25 27 26 25 26 26 26 24 23
16 16 15 16 16 17 18 19 19 19 20 19 19 19 19 20 21 21 21 21 21 21 21 20 21 21 21 21 22 23 24 26 25 25 25 26 29 28 25 25 25 23 22
17 17 17 17 17 17 18 18 18 19 19 20 20 20 19 20 21 21 21 21 22 21 21 22 22 22 22 23 23 25 25 26 26 26 27 27 26 25 25 25 25 24 21
17 17 18 18 18 19 19 19 19 20 20 20 21 21 21 21 21 22 22 22 22 22 22 23 23 23 24 25 24 23 25 24 24 26 29 28 26 25 26 25 23 22 21
17 18 19 19 19 19 19 20 20 20 20 21 21 21 21 22 22 23 23 23 23 23 23 24 23 25 25 26 25 25 23 25 26 26 27 27 26 23 23 22 21 22 20
19 19 19 20 20 21 21 21 21 21 21 21 22 22 21 22 22 23 23 24 24 25 24 23 24 24 25 27 26 25 27 28 29 28 28 25 24 25 23 20 19 17 17
20 20 21 21 21 21 21 22 22 22 22 22 22 22 22 23 23 24 24 27 28 25 25 25 23 25 25 23 24 26 28 27 27 26 26 22 24 22 19 19 19 17 16

GFSGL_con_lsi_087.txt.gz
Lid_Strength_Index
2 2 2 1 2 2 2 3 3 3 3 3 3 3 2 2 1 1 1 1 1 1 1 2 2 2 2 2 1 1 2 2 4 3 4 4 4 4 4 5 5 6 7
2 2 2 1 1 1 2 2 2 3 3 3 3 3 2 2 2 2 2 2 2 1 1 1 1 1 2 2 2 2 2 1 2 4 3 5 4 3 4 6 5 5 6
2 2 2 2 2 2 1 1 1 2 3 3 3 3 3 2 2 2 2 3 3 2 2 2 2 2 2 1 2 2 2 2 2 3 3 4 4 5 7 7 6 6 7
2 2 3 3 2 2 1 1 1 1 2 3 3 3 3 3 3 2 2 2 2 2 2 2 2 1 2 2 2 2 2 2 3 3 4 4 7 7 6 7 8 9 8
4 2 3 3 2 2 1 1 1 1 2 2 3 3 3 3 3 2 2 2 2 3 2 1 1 2 4 3 2 2 2 3 3 4 4 6 8 11 8 7 7 8 11
4 4 3 2 2 2 2 2 2 2 1 2 2 3 3 3 6 7 4 2 2 2 2 2 1 5 5 7 7 6 4 3 3 4 5 6 7 6 6 7 9 13 13
3 3 3 3 3 2 2 2 2 2 2 2 2 2 2 2 7 8 8 2 2 2 2 2 2 2 6 4 9 10 12 12 13 5 5 5 6 8 12 13 14 15 15
3 3 3 3 3 3 2 2 2 2 2 2 2 2 2 1 8 8 10 4 2 2 2 2 3 4 6 6 9 12 15 15 14 13 13 14 12 12 12 13 13 14 13
4 5 4 3 3 3 3 3 2 2 2 2 2 2 2 2 8 9 9 4 3 3 7 10 6 7 11 10 12 15 16 16 14 13 13 13 14 13 13 13 15 15 16
4 5 7 8 4 3 3 3 3 3 3 2 3 2 4 2 9 9 9 4 5 13 15 14 14 12 13 13 13 15 17 17 17 16 16 16 15 15 15 15 14 15 16
6 7 8 9 8 8 5 3 4 3 3 6 10 14 13 14 13 12 12 10 10 15 16 16 15 14 14 14 14 15 17 17 17 17 17 17 17 16 15 15 16 16 17
9 10 11 12 12 11 11 10 9 9 11 14 16 17 17 16 15 14 14 15 14 15 16 16 16 15 15 16 16 16 16 16 17 17 17 17 17 17 17 17 16 16 16
10 12 13 13 14 15 15 15 13 12 13 14 15 16 17 17 16 16 16 16 16 17 17 16 16 16 16 16 16 17 17 17 17 18 18 19 18 17 17 17 16 16 16
11 12 13 14 15 16 15 16 17 16 15 16 17 19 18 18 17 17 17 17 17 18 20 19 19 18 18 18 19 18 18 18 19 19 19 18 17 18 18 18 19 18 18
12 12 13 14 15 16 16 16 16 16 16 17 18 18 18 19 18 18 18 19 19 18 19 19 19 19 19 19 19 19 19 19 19 19 20 20 19 19 19 18 19 19 20
12 13 13 14 15 15 16 17 15 16 15 15 16 16 16 16 16 16 16 16 16 17 18 19 19 19 20 20 20 21 20 20 20 20 20 20 21 20 20 20 20 20 21
14 14 14 14 15 15 16 17 18 17 15 16 15 15 15 15 15 15 16 17 17 17 19 20 20 20 20 20 20 21 21 21 20 21 21 21 21 21 22 22 22 22 23
14 15 15 15 15 15 16 16 17 18 19 18 17 16 16 16 16 16 17 17 20 19 20 20 21 21 21 21 21 21 21 21 21 22 23 23 23 23 24 24 23 25 24
14 14 14 15 15 16 16 16 17 17 18 19 19 19 18 18 18 18 18 20 21 21 20 20 20 21 21 21 21 22 23 23 24 24 25 25 26 24 25 25 25 26 25
15 15 15 16 17 17 18 19 19 19 19 20 21 21 20 21 22 22 21 21 21 21 21 21 21 22 22 22 23 23 24 24 24 24 27 28 28 27 27 27 26 26 24
16 17 16 17 17 18 18 19 19 19 20 20 21 21 21 22 22 23 23 23 23 23 22 23 23 23 23 24 24 25 26 26 26 26 26 26 31 29 27 27 28 26 24
17 18 18 18 18 19 19 19 20 20 21 21 21 21 21 22 22 23 23 24 24 23 23 24 25 25 25 25 25 26 27 28 29 30 30 30 29 29 29 29 29 30 26
18 18 19 19 19 19 20 20 20 21 21 21 22 23 23 24 24 24 24 24 25 25 25 25 26 26 26 27 27 26 27 29 30 32 33 33 30 30 32 31 29 27 26
19 19 19 20 20 21 21 22 22 22 23 24 24 24 24 25 26 27 27 27 26 28 26 27 26 26 26 29 29 27 28 32 30 32 34 34 31 26 29 27 26 26 22
20 20 21 21 22 22 23 23 23 24 24 25 24 24 25 24 26 28 30 29 27 26 25 26 28 29 31 29 30 30 31 30 32 30 31 30 31 31 28 24 22 23 24
21 22 22 22 23 24 24 25 25 26 27 26 25 30 29 25 27 32 31 29 28 28 29 29 29 28 27 27 27 28 29 27 29 27 29 27 27 26 27 27 24 22 19

GFSGL_con_lsi_090.txt.gz
Lid_Strength_Index
2 2 2 2 2 2 3 4 4 4 4 4 3 3 2 2 2 2 1 2 2 2 2 2 2 2 2 2 2 2 2 2 4 3 2 2 3 3 2 4 3 3 3
2 2 2 1 2 2 3 3 3 4 4 3 3 3 3 2 2 2 3 2 2 2 2 2 2 2 3 3 2 2 2 2 3 4 3 3 4 4 3 5 4 4 4
3 2 2 2 2 2 2 3 3 3 4 4 3 3 3 3 3 3 2 3 3 2 2 2 2 2 2 2 2 2 2 2 2 3 3 2 3 5 5 5 6 5 5
4 4 3 2 2 2 1 2 2 3 3 4 4 4 4 3 3 3 2 2 2 2 2 2 1 1 2 2 2 2 2 3 3 3 3 2 3 5 5 6 8 7 6
4 4 4 3 2 1 2 1 1 2 3 3 4 4 4 4 4 3 3 3 3 3 3 3 2 2 4 3 2 2 2 3 3 3 3 3 4 9 6 5 5 5 10
4 4 4 4 4 3 3 2 2 2 2 3 4 4 4 4 7 8 5 4 3 3 4 3 2 6 6 7 6 6 3 2 3 3 3 4 3 4 4 6 6 11 11
3 3 3 3 3 3 3 3 3 2 2 2 3 3 4 4 8 9 9 4 4 4 3 3 3 3 5 3 7 9 10 12 12 3 3 3 3 4 5 11 12 12 14
5 4 4 3 3 3 3 3 3 3 3 3 2 2 2 3 8 9 10 5 4 4 4 4 3 3 3 4 4 8 11 13 12 11 10 11 13 12 10 12 12 14 14
7 7 7 7 6 4 3 3 3 3 3 3 3 3 2 2 8 9 9 5 4 4 3 3 3 3 6 8 8 12 15 15 14 13 13 14 13 13 12 12 14 14 16
8 8 8 9 8 8 8 5 2 2 2 3 3 3 5 2 7 9 9 3 5 4 4 11 13 8 9 11 6 11 15 16 16 16 16 16 16 15 15 14 14 16 17
8 9 10 10 10 10 9 9 9 7 3 3 5 13 14 15 14 13 11 6 5 6 9 16 15 14 14 13 12 13 14 16 17 17 17 17 17 16 16 16 17 16 17
10 11 12 12 12 12 11 11 12 12 12 12 14 16 16 16 16 15 15 14 12 15 17 16 16 16 16 16 16 16 16 17 16 18 18 18 18 18 18 17 17 17 17
11 12 13 14 14 13 13 13 13 12 14 16 16 17 18 17 17 16 16 16 16 16 16 17 17 16 17 17 17 17 17 17 18 19 20 19 19 18 17 18 17 17 17
12 13 13 14 14 14 14 14 15 14 15 15 16 18 18 18 18 18 18 18 17 18 18 19 19 18 19 18 18 18 18 19 19 20 20 20 19 20 20 19 20 19 20
12 12 13 13 14 14 14 14 14 14 14 15 16 17 18 19 17 17 18 19 18 18 18 18 19 19 20 20 21 20 20 20 21 20 21 21 21 21 21 20 20 20 21
13 13 13 14 14 14 14 14 13 13 12 12 13 15 16 14 14 15 15 15 16 16 18 19 20 21 22 21 22 21 21 21 22 22 22 22 22 22 22 22 21 22 22
14 14 14 14 14 15 15 15 16 15 14 13 13 13 13 14 14 14 15 16 17 17 20 20 21 21 21 22 22 23 23 22 21 22 22 22 23 23 23 23 23 24 24
14 14 15 15 15 16 16 16 17 18 19 19 16 15 15 15 16 16 16 18 20 20 21 21 22 22 21 21 22 22 22 22 22 23 24 24 24 24 24 25 25 26 25
15 15 16 16 16 16 16 17 17 18 19 20 19 19 18 17 18 18 18 21 22 22 22 22 22 22 22 23 23 24 24 24 24 25 26 26 28 26 26 26 26 26 26
16 16 17 17 17 17 18 18 19 20 21 21 21 21 21 21 23 23 23 22 23 23 23 23 23 23 23 23 24 24 25 25 26 27 31 31 31 27 28 28 28 28 26
17 17 16 17 17 18 18 19 20 20 21 22 22 21 21 22 24 24 24 24 24 24 24 25 25 25 25 26 26 27 27 29 28 29 30 30 35 32 28 28 28 28 26
17 17 17 18 18 19 19 19 20 21 21 22 22 23 23 23 24 25 25 26 25 25 25 26 26 26 27 27 27 30 31 33 34 34 32 31 30 31 31 31 32 33 29
18 19 19 19 19 19 20 20 21 22 23 23 24 24 25 26 27 27 27 28 27 27 27 27 28 28 29 30 29 30 31 33 34 36 37 36 32 32 35 33 31 31 30
19 19 20 20 21 21 22 22 22 23 23 24 24 25 26 28 29 30 31 30 29 29 30 30 28 28 28 32 31 30 29 34 32 33 37 36 33 30 33 30 29 30 29
21 21 22 22 23 23 24 24 25 25 25 26 27 26 27 30 30 33 32 29 28 29 30 32 32 31 31 32 31 31 32 32 34 33 34 33 33 33 31 29 30 28 28
21 22 22 23 24 25 25 26 27 27 27 28 29 30 31 32 33 36 34 32 32 31 31 31 30 31 31 30 29 30 30 29 31 30 34 30 31 31 31 31 28 28 23

GFSGL_con_lsi_093.txt.gz
Lid_Strength_Index
3 2 2 2 3 3 4 4 4 4 4 4 3 3 3 3 3 3 3 2 3 3 3 3 3 2 3 3 2 2 3 3 4 3 3 3 3 2 2 2 2 2 3
3 2 2 2 2 3 3 4 4 4 4 4 4 3 3 3 3 3 3 2 3 3 3 3 3 3 3 2 2 3 3 3 3 4 3 3 4 3 2 2 3 2 2
3 3 3 2 2 2 3 4 4 4 5 4 4 4 3 3 2 3 3 3 3 3 2 3 2 3 3 3 3 3 3 3 3 3 3 3 3 5 4 4 3 4 4
4 4 4 3 2 2 2 3 3 4 4 4 4 4 4 3 3 2 2 3 3 3 3 3 3 3 3 3 3 3 3 3 3 3 3 3 3 4 6 5 6 7 4
4 4 4 4 3 3 2 2 3 3 4 4 4 5 4 4 4 4 3 3 3 3 3 2 2 2 4 3 2 2 2 3 3 3 4 3 3 4 6 3 4 4 5
4 4 4 4 4 4 3 3 3 3 3 3 4 4 5 5 7 9 5 4 3 3 4 3 3 5 5 7 7 6 3 3 3 3 3 4 3 3 2 4 4 5 7
3 3 3 3 3 3 3 3 3 3 3 4 4 4 4 4 9 9 9 4 4 4 4 4 4 3 6 4 7 8 8 8 8 3 3 3 3 2 2 3 4 5 5
8 7 7 7 5 3 3 3 3 3 2 3 3 3 4 4 9 9 10 6 5 5 5 4 5 5 5 5 5 5 6 5 6 7 5 4 3 7 8 6 4 11 14
9 9 9 9 8 8 7 5 2 2 3 2 2 2 3 3 8 10 10 7 6 5 5 5 5 5 6 8 6 6 6 13 13 12 13 13 13 13 11 11 14 13 15
11 11 11 11 10 10 10 9 8 7 4 2 2 3 7 7 14 13 11 5 6 6 6 6 9 7 8 10 6 5 6 13 15 16 16 16 15 15 15 15 14 14 16
11 12 13 13 12 12 12 10 10 9 9 11 13 15 15 16 15 14 14 13 7 7 8 10 16 14 14 13 12 7 8 16 17 17 17 17 17 17 17 17 17 17 19
11 13 14 14 13 13 13 13 12 11 12 14 15 16 17 17 16 16 15 15 14 16 16 16 16 15 16 16 16 15 16 17 17 18 19 19 19 18 18 18 17 17 17
13 14 14 15 14 14 14 14 14 13 13 14 15 16 17 17 17 17 16 16 16 17 17 17 17 16 16 17 17 17 17 18 19 19 21 21 20 20 19 20 18 19 19
13 14 14 15 15 15 14 14 14 14 14 14 14 15 16 17 17 17 17 17 17 17 18 18 18 18 19 19 19 19 19 19 20 21 21 21 21 21 22 21 22 21 21
13 13 14 14 14 14 14 14 14 13 13 15 15 15 16 16 15 14 15 16 17 17 18 18 19 19 20 20 20 21 20 20 21 21 22 22 23 23 23 22 22 22 23
14 14 14 14 14 14 15 16 13 13 13 12 12 13 13 12 13 13 14 14 15 16 18 20 20 20 21 22 22 22 22 22 22 22 23 23 23 23 24 24 23 23 24
14 14 14 14 14 15 16 16 18 17 15 14 14 14 13 14 14 14 14 15 16 17 20 20 21 21 21 21 22 22 24 23 23 24 24 24 23 23 24 24 24 24 24
15 15 15 16 16 16 17 18 19 20 21 20 17 16 15 15 15 15 16 17 20 19 20 21 22 22 22 22 22 23 23 24 24 24 25 25 24 24 25 25 25 25 25
17 17 17 17 17 18 19 19 20 21 21 21 21 20 20 17 17 17 18 21 22 22 22 22 22 22 22 23 24 24 25 26 26 27 27 26 27 26 27 27 26 26 26
18 18 18 18 19 19 19 20 21 21 21 22 22 22 21 22 23 23 23 23 23 23 23 23 23 23 23 23 24 24 25 26 26 27 29 29 29 27 29 28 29 30 26
19 19 19 19 19 19 19 19 19 20 21 22 23 22 22 23 24 24 24 25 25 25 25 25 25 26 25 25 26 27 28 29 28 28 28 30 34 33 29 29 29 27 26
19 19 19 19 19 19 19 19 20 21 21 22 23 23 23 24 25 25 26 27 27 26 26 27 28 28 28 28 29 31 32 34 34 33 33 32 31 32 32 32 32 32 28
19 20 20 20 20 20 21 21 21 22 23 23 24 25 25 26 27 27 28 27 27 28 27 27 29 29 30 32 31 31 32 34 35 37 37 36 33 33 36 34 32 31 31
20 21 21 22 22 22 23 23 23 23 23 25 26 27 27 29 29 29 29 29 29 30 31 30 28 29 30 35 34 32 31 35 34 35 38 37 33 31 34 31 31 32 31
22 23 23 24 24 24 25 25 25 25 26 26 26 27 28 28 29 31 31 30 30 31 30 31 31 32 33 34 33 32 33 33 35 34 35 34 35 34 32 30 32 30 30
23 24 24 24 25 25 26 28 28 28 28 29 30 31 31 30 30 32 31 31 32 32 31 32 32 33 33 31 30 31 32 31 33 33 35 31 32 32 32 32 31 30 26

GFSGL_con_lsi_099.txt.gz
Lid_Strength_Index
4 4 3 2 1 1 1 1 0 1 2 2 2 2 2 2 2 2 3 2 3 3 2 2 3 3 3 2 1 1 2 2 3 2 1 0 2 2 2 1 2 2 2
3 3 3 2 1 1 1 1 1 1 2 1 2 2 2 2 1 1 2 2 2 3 3 3 3 2 2 2 2 2 2 1 2 3 1 1 1 1 -0 1 2 1 1
3 4 3 2 2 1 1 2 1 1 1 1 1 2 3 2 2 2 2 1 2 2 2 3 3 3 3 3 2 2 2 2 1 2 2 1 1 1 1 2 2 2 2
3 4 3 3 3 1 1 1 2 1 1 1 1 1 1 2 2 2 2 2 1 1 0 0 1 2 3 3 2 3 2 2 2 2 2 2 1 0 0 1 1 0 1
4 4 4 3 3 3 1 1 1 2 1 1 1 1 1 1 1 1 2 3 3 2 0 0 0 1 4 3 2 2 2 2 2 2 3 2 2 2 2 1 2 1 1
3 3 3 3 3 3 3 2 2 2 2 2 2 2 1 2 7 8 4 1 2 2 1 1 1 4 4 7 7 6 3 2 2 2 3 3 3 2 1 2 2 3 4
9 9 8 7 6 5 3 3 3 3 3 3 3 3 3 3 9 9 9 2 2 2 2 2 2 2 5 2 7 9 9 8 8 2 2 3 3 2 1 2 2 2 3
12 12 11 10 9 9 8 8 7 6 3 4 3 4 3 8 13 11 11 5 4 4 4 3 3 2 2 3 3 3 3 4 6 6 5 3 4 10 9 6 5 4 6
14 13 13 12 12 11 11 11 10 8 9 12 12 10 9 13 14 13 12 7 6 5 5 5 9 7 10 12 7 6 6 7 14 13 15 15 15 15 15 11 10 9 9
14 14 13 13 13 12 12 12 11 10 12 13 14 15 15 14 14 13 13 9 8 8 14 14 15 14 14 13 11 10 9 10 15 16 17 17 17 17 17 17 16 14 13
15 15 14 14 14 13 13 12 12 12 13 14 15 16 16 15 15 15 13 11 12 15 16 17 17 16 15 15 15 14 13 15 16 17 18 18 19 19 19 19 20 20 19
15 15 16 15 15 14 14 13 12 12 13 15 15 16 15 15 14 14 15 15 15 17 18 17 17 17 17 17 17 17 17 17 18 19 20 20 20 20 20 20 20 20 20
14 15 16 16 16 15 15 15 15 14 14 15 14 14 14 14 14 14 14 14 14 14 15 16 16 16 16 16 17 17 17 18 18 19 19 20 18 18 18 17 16 18 19
15 16 16 16 16 15 15 15 15 15 15 15 15 14 14 13 13 13 13 13 14 14 15 15 15 15 15 15 15 15 15 15 16 17 17 17 16 16 16 16 17 17 19
15 15 15 16 16 17 17 16 15 14 13 14 14 14 14 15 14 13 13 14 14 15 15 14 15 15 16 16 16 16 15 15 16 16 16 17 17 17 18 17 17 18 19
14 14 14 14 14 15 15 16 14 14 13 13 13 13 13 13 14 14 14 15 15 15 15 16 17 17 17 17 17 18 17 18 17 17 17 18 18 18 18 18 18 19 20
15 14 14 14 15 15 15 16 17 17 15 15 14 14 14 14 15 15 15 16 16 16 17 17 18 18 18 18 18 19 20 19 19 18 18 18 19 19 19 19 19 19 21
16 17 16 16 16 17 17 17 17 18 19 19 18 16 15 15 16 16 16 16 17 17 17 18 18 18 18 19 19 19 19 19 19 20 20 20 20 19 20 21 21 21 21
16 16 16 16 17 17 17 18 18 18 19 19 18 19 19 18 18 18 18 18 18 19 19 19 19 19 19 19 19 19 21 22 21 21 21 21 21 20 21 21 21 23 21
17 18 17 17 17 17 18 18 19 20 20 21 21 21 19 19 20 21 20 20 19 19 19 19 19 19 19 19 20 20 21 21 21 21 22 22 21 21 21 22 21 21 22
17 17 18 17 18 18 19 19 20 20 21 22 22 22 22 21 21 21 21 21 20 20 20 20 20 20 20 21 21 22 23 23 22 22 22 22 22 22 21 21 21 21 22
17 17 18 18 18 19 19 19 20 20 21 21 21 22 22 21 21 22 22 22 22 21 21 21 21 22 22 22 22 22 24 24 23 23 23 23 22 22 21 22 21 21 21
17 18 18 18 19 20 19 20 20 21 22 22 22 22 22 23 23 23 23 23 23 22 22 22 22 23 23 23 23 23 24 24 24 24 23 22 21 21 21 21 22 21 22
18 18 19 20 20 20 20 21 22 23 22 22 22 23 23 24 24 24 24 23 23 23 23 23 23 23 23 23 23 23 23 24 23 24 25 23 22 22 21 21 21 22 21
19 20 20 20 21 21 21 21 22 22 22 22 23 23 23 23 24 24 24 24 24 24 24 24 23 24 24 25 25 25 26 26 25 27 23 23 24 24 22 20 21 19 20
20 20 20 20 21 21 21 22 22 22 23 23 23 23 23 24 24 23 24 24 24 24 24 23 23 24 25 23 24 25 26 26 25 27 23 20 20 20 19 20 23 19 19

GFSGL_con_lsi_105.txt.gz
Lid_Strength_Index
2 2 1 1 1 1 1 0 1 1 1 0 0 1 1 2 1 1 1 1 2 3 3 3 3 3 3 3 3 3 4 4 6 4 3 3 1 1 1 -1 -1 -1 -1
2 2 1 1 1 1 1 1 0 1 0 0 0 1 1 1 1 2 2 3 3 3 3 3 3 3 3 3 4 4 4 4 4 5 3 3 2 0 1 0 -0 -1 -1
2 2 2 2 2 1 1 1 1 1 1 0 0 1 1 1 1 1 2 2 2 2 1 2 2 3 3 3 2 2 2 2 1 3 3 1 1 0 0 0 0 0 -1
2 2 2 2 2 1 1 1 1 1 1 2 1 1 1 1 1 1 1 1 1 1 0 0 1 1 1 1 1 1 1 1 2 2 2 2 1 0 1 2 2 0 1
2 2 3 2 1 1 1 1 1 1 1 1 1 1 1 1 1 1 1 1 1 1 1 1 0 1 4 3 1 1 1 2 2 2 3 3 3 2 2 1 2 1 1
8 8 4 3 2 2 2 1 1 1 1 1 1 1 1 1 12 9 4 1 1 1 1 1 0 4 4 8 7 7 4 1 2 3 3 3 3 2 1 2 2 3 4
12 11 10 8 7 7 3 2 2 2 2 2 1 1 5 9 12 12 11 1 1 1 1 2 1 1 5 2 7 10 9 9 10 3 3 3 3 5 8 6 5 6 6
14 13 12 11 10 10 9 8 8 9 10 9 9 8 10 12 13 13 13 4 4 5 10 10 9 9 13 11 7 6 8 12 12 9 10 13 14 15 13 11 10 10 9
15 14 13 13 13 12 12 12 12 13 14 14 13 13 13 14 14 14 12 7 7 13 14 14 13 14 15 13 9 8 14 16 15 15 16 16 16 16 16 13 14 14 13
16 15 13 13 13 13 13 14 14 15 15 15 16 16 16 16 15 14 11 8 14 16 16 16 16 16 16 15 12 11 12 16 16 17 18 18 18 18 18 18 17 15 15
14 15 14 14 13 13 13 14 15 16 16 16 17 16 17 16 16 15 15 15 16 17 17 17 17 16 16 16 16 15 16 16 18 18 18 18 18 18 19 18 16 16 17
16 15 15 15 14 13 13 13 13 14 14 15 16 16 16 16 16 16 16 16 16 17 18 17 17 16 16 16 16 16 16 16 16 16 16 17 17 16 16 15 15 15 15
15 16 16 16 15 15 15 15 14 14 14 15 15 15 15 15 16 16 16 16 16 16 15 15 15 15 14 14 14 14 13 13 14 15 15 15 14 13 13 13 13 13 14
14 15 15 17 17 17 17 17 18 16 16 16 16 16 16 16 15 14 14 14 15 15 15 14 15 15 14 14 13 13 13 13 13 14 14 13 13 13 13 12 13 13 14
13 13 14 15 16 17 18 17 17 17 17 16 17 17 17 18 17 16 15 15 14 13 13 13 13 13 13 14 13 13 13 13 13 13 13 13 13 13 14 13 13 14 15
13 13 13 13 13 14 16 17 17 17 17 16 16 17 17 17 17 16 15 14 13 12 12 13 14 14 14 14 14 15 14 15 14 14 14 14 15 15 15 14 14 15 16
14 14 13 13 13 14 14 14 17 16 16 16 16 16 16 16 15 14 14 13 12 13 14 14 15 15 15 15 15 15 16 16 15 15 15 15 15 15 15 15 15 15 16
14 14 14 14 14 14 14 14 14 15 16 17 16 16 15 15 14 14 13 13 14 14 15 15 16 15 16 16 16 16 16 16 16 16 16 16 15 16 16 16 16 16 16
14 14 14 14 14 14 14 14 14 15 15 15 15 15 15 15 15 15 15 15 15 16 16 16 16 16 16 16 16 16 17 17 17 16 16 16 16 16 16 16 16 17 16
14 14 14 14 14 14 14 14 15 15 16 17 18 17 15 15 16 16 16 16 16 16 16 17 17 16 16 16 17 16 16 17 16 16 16 16 16 16 16 17 17 17 17
13 13 14 14 14 14 15 15 15 16 17 18 18 18 17 16 17 17 17 17 17 17 17 17 17 17 17 17 17 17 18 17 17 17 18 17 17 17 17 16 16 16 17
13 13 13 14 14 14 15 15 15 15 16 17 17 18 17 16 17 17 18 18 17 17 17 17 18 18 18 18 18 17 19 19 19 18 18 18 17 17 16 17 17 17 16
13 14 14 14 14 15 15 15 16 16 16 16 17 17 17 17 18 18 18 18 18 18 18 18 19 19 18 18 18 18 19 19 19 20 19 18 17 18 17 17 17 17 17
14 14 14 15 15 15 15 16 17 17 16 16 16 17 17 17 18 19 19 18 19 19 19 19 20 22 21 20 19 19 21 22 20 19 19 19 17 17 17 17 16 16 16
14 14 14 14 15 15 15 15 16 16 16 16 16 17 17 17 18 18 18 19 19 19 19 19 20 20 21 21 21 22 23 23 22 23 19 17 17 18 17 17 17 17 16
14 14 15 15 15 15 15 16 16 16 17 17 17 17 17 18 18 18 18 19 20 19 19 19 20 20 20 18 21 22 23 23 22 23 21 18 17 17 16 16 16 15 15

GFSGL_con_lsi_108.txt.gz
Lid_Strength_Index
2 2 2 2 2 1 1 1 1 1 1 1 1 1 1 1 1 2 2 2 3 2 2 3 3 3 3 3 3 3 4 4 6 5 4 4 4 2 1 1 1 0 1
2 2 2 2 2 2 2 1 1 2 1 1 1 1 1 1 1 1 2 2 2 2 2 2 3 3 3 3 3 4 4 4 5 5 4 4 4 3 1 1 1 1 -0
3 2 2 2 2 2 2 1 1 1 1 1 1 1 1 1 1 2 2 2 2 2 2 3 2 3 3 3 3 3 4 3 4 4 4 3 3 2 2 1 2 1 0
3 2 3 2 2 2 1 2 2 1 1 1 1 1 1 1 1 1 2 2 2 2 2 2 2 2 2 3 2 3 3 3 3 3 3 3 3 2 1 2 2 2 1
5 3 3 2 2 2 2 2 2 1 1 1 1 1 1 1 3 1 1 1 2 1 1 1 1 2 4 3 1 1 2 2 2 3 3 3 3 3 3 2 2 2 1
10 11 9 5 4 3 3 2 2 2 2 1 1 1 2 8 12 11 5 2 2 1 2 1 1 5 5 7 7 7 3 2 3 3 4 4 4 3 3 3 3 4 6
12 12 11 10 10 8 5 4 4 4 2 3 3 8 10 11 13 12 12 2 3 4 5 5 3 6 7 4 9 10 10 12 13 6 5 5 6 9 8 7 7 7 7
14 13 13 12 12 12 11 11 11 11 11 10 10 11 13 14 14 12 12 4 8 11 11 10 9 11 13 11 7 11 14 14 13 12 13 15 16 15 13 11 11 11 11
15 14 14 13 13 14 14 14 14 14 15 15 15 15 15 15 14 12 9 9 12 14 14 14 14 15 15 13 9 13 16 16 15 15 15 16 16 15 15 12 15 14 14
16 15 14 14 14 15 16 16 15 15 15 16 16 16 16 16 15 13 11 12 15 16 16 16 16 16 15 14 12 13 16 17 17 17 18 17 17 17 17 17 17 15 15
15 16 15 15 15 15 15 16 15 15 16 16 17 17 17 17 16 15 14 15 16 17 17 17 16 16 16 16 16 16 17 17 18 18 18 18 18 17 17 16 17 18 18
15 16 16 16 16 16 16 15 16 16 16 16 16 17 17 18 17 16 16 16 16 17 18 17 17 16 16 17 17 17 17 17 17 18 17 17 17 16 16 15 16 17 17
15 16 17 18 18 17 18 18 17 16 16 17 17 18 18 17 17 17 16 17 16 17 17 16 16 16 16 17 16 15 15 15 15 16 16 16 15 14 14 14 18 19 19
14 15 16 17 18 18 18 19 19 19 18 18 18 19 19 19 17 17 17 16 17 17 17 17 17 17 17 16 16 15 15 15 15 15 15 15 14 14 17 16 16 16 18
13 13 14 16 17 18 18 18 18 18 17 19 19 19 20 20 18 17 17 17 17 16 16 17 17 17 17 18 17 16 15 15 15 15 15 15 16 18 18 17 17 17 19
14 13 13 13 14 16 18 19 17 17 17 17 17 17 17 16 15 15 15 15 15 15 16 18 18 18 18 17 18 18 18 18 17 17 18 18 18 18 17 16 16 18 19
14 14 14 14 14 14 15 17 19 17 16 16 16 15 15 15 15 15 16 16 16 16 18 18 18 18 18 18 17 18 19 18 17 18 18 18 17 17 18 18 17 17 18
13 13 14 14 14 14 15 15 15 17 18 18 16 16 15 15 15 14 14 15 17 17 17 18 18 18 18 18 18 19 19 18 19 19 20 20 20 19 20 20 20 22 19
14 13 13 13 13 14 14 15 15 16 17 17 16 16 15 15 15 15 15 17 18 19 18 18 18 18 18 18 19 21 22 22 22 21 21 21 22 20 22 20 20 22 21
13 14 13 13 13 14 14 15 16 17 18 19 19 19 16 17 18 19 18 18 19 19 19 19 19 19 20 20 21 20 21 22 21 21 23 24 22 22 22 22 23 23 21
13 13 13 13 14 14 14 15 15 17 18 19 20 19 18 18 19 19 20 20 20 20 20 20 21 21 20 20 20 22 21 22 21 22 23 22 24 23 21 22 21 20 20
13 13 14 14 15 15 15 15 15 16 17 18 19 19 19 19 19 20 20 21 20 20 20 20 21 21 21 21 21 22 24 25 25 23 22 22 21 21 21 20 23 23 21
14 14 14 15 14 15 16 16 16 16 17 17 18 18 19 19 19 20 20 20 21 22 22 22 23 22 21 21 22 23 25 25 23 26 26 24 21 24 23 23 22 23 24
14 14 15 15 16 15 15 16 17 19 18 17 18 19 19 19 21 22 22 21 22 23 21 22 24 25 24 24 23 24 25 26 24 25 25 24 23 23 24 23 21 24 21
14 14 14 15 15 15 16 16 17 17 17 17 17 18 18 19 19 20 20 23 22 21 22 23 24 24 25 25 25 26 28 27 29 28 26 24 23 24 21 22 21 22 23
15 15 15 15 15 15 16 16 17 17 18 18 18 19 19 20 19 20 21 22 23 22 22 21 23 23 22 23 24 25 26 27 28 28 28 23 21 21 23 24 22 21 20

GFSGL_con_lsi_111.txt.gz
Lid_Strength_Index
3 2 2 2 2 3 2 2 2 3 3 2 2 2 2 1 1 1 1 1 2 2 2 2 2 2 3 3 3 4 4 5 6 5 4 3 4 3 2 2 2 2 2
4 4 4 3 3 2 2 3 3 3 3 3 2 2 1 1 1 2 2 2 2 3 2 2 2 3 3 3 3 3 3 3 4 5 5 4 4 4 3 2 1 0 1
4 3 4 4 3 3 3 3 3 3 3 3 2 1 1 1 2 2 2 2 2 2 2 3 2 2 3 3 3 3 3 3 4 4 5 4 3 4 4 3 2 1 1
9 7 5 3 3 2 2 3 3 3 2 2 1 1 1 1 2 2 1 2 2 2 1 2 2 2 2 2 2 3 3 3 4 4 4 4 4 3 2 3 3 2 2
11 11 10 9 3 3 3 3 3 3 2 1 1 1 1 1 3 2 2 2 3 2 2 2 3 3 5 4 2 2 2 3 3 4 4 3 3 4 4 3 3 3 2
12 12 11 11 10 6 3 3 3 3 3 2 2 2 7 8 12 11 4 2 3 2 3 2 1 5 5 7 7 6 3 2 3 3 3 4 3 3 3 3 3 4 5
13 12 12 12 12 12 11 6 6 4 4 5 7 8 10 11 13 12 11 2 2 4 5 3 3 6 6 3 8 11 12 12 12 5 4 5 5 10 8 6 6 6 7
14 13 13 13 13 13 13 14 13 13 12 12 12 12 13 13 13 13 11 8 10 11 11 10 9 10 12 8 8 11 13 14 14 13 13 15 15 15 13 11 10 11 14
16 15 14 14 14 14 15 15 15 15 15 15 15 15 15 15 13 12 11 13 15 16 14 14 13 13 14 11 11 14 16 17 15 15 15 15 15 15 14 12 14 14 15
16 16 14 14 15 15 15 16 15 15 16 16 16 16 16 16 14 14 14 15 16 17 16 15 15 14 14 13 12 15 17 18 18 18 18 17 17 16 17 17 16 15 15
16 16 16 15 16 16 15 15 15 16 16 16 17 17 17 17 16 15 15 16 17 17 17 17 16 15 15 15 15 15 17 17 18 18 18 18 18 18 17 17 17 16 17
15 16 17 17 16 16 17 16 16 16 16 17 18 18 17 17 16 16 16 16 16 17 18 16 15 15 16 16 17 16 17 17 17 18 18 18 18 19 19 19 19 18 18
15 16 17 17 17 17 18 18 17 17 17 18 18 19 18 17 17 17 17 17 17 17 17 16 16 16 16 17 16 16 17 17 18 19 19 19 18 19 20 20 20 19 19
13 15 17 18 18 17 17 17 17 18 18 18 19 19 19 18 18 17 17 17 17 17 17 17 17 18 18 18 17 17 17 18 19 19 19 19 21 21 21 21 20 20 20
13 13 14 16 17 18 18 18 18 17 17 18 18 18 18 17 17 16 17 17 17 18 17 18 19 19 21 20 20 20 19 18 19 19 19 20 20 19 19 18 18 19 20
14 14 14 14 15 16 17 18 16 16 15 15 15 16 16 15 15 15 16 16 17 17 18 20 20 20 21 21 21 21 20 20 20 18 18 19 19 18 18 18 18 19 20
14 14 14 14 14 14 16 17 19 17 15 15 15 15 14 15 15 15 16 16 16 18 20 20 21 21 21 21 21 21 21 20 18 18 18 19 19 19 20 20 20 19 20
15 14 15 15 15 15 15 15 17 19 19 18 15 15 15 15 15 15 16 17 19 19 19 20 20 20 20 20 20 19 19 19 19 19 20 21 21 20 21 21 21 23 20
15 15 14 15 14 15 15 16 17 18 19 19 19 17 17 16 16 16 17 19 20 20 20 20 20 20 20 20 21 21 22 22 22 23 22 22 24 22 23 22 22 24 22
14 15 15 15 16 16 16 17 18 18 19 20 20 19 19 19 21 21 21 21 21 21 21 21 21 21 21 22 22 23 23 23 23 23 25 26 27 24 24 25 25 26 22
14 18 17 17 16 16 16 17 20 19 20 21 20 19 19 20 21 22 22 22 22 22 23 23 24 24 23 23 23 24 25 27 26 25 24 24 28 26 25 24 23 22 22
16 17 16 17 19 18 17 17 18 19 21 20 19 20 20 21 21 21 23 24 24 23 23 24 23 24 24 25 25 27 27 28 28 29 27 25 25 25 24 25 26 26 24
18 17 18 18 17 20 21 19 18 20 21 21 21 22 22 23 22 22 23 27 25 26 26 26 27 25 24 27 27 28 29 30 28 32 31 28 27 27 27 26 24 26 26
17 17 16 16 18 19 18 20 21 21 20 23 25 25 25 26 27 27 26 28 28 29 29 29 27 27 26 29 30 29 28 31 29 30 32 29 27 26 28 27 26 28 26
19 19 18 17 18 17 18 19 21 22 22 22 21 21 20 21 22 27 29 29 26 27 29 28 29 26 28 29 29 29 30 30 32 32 31 29 26 25 25 25 27 26 27
18 19 20 20 20 20 18 18 19 20 20 20 20 23 23 21 22 24 27 26 24 26 24 28 26 25 26 27 28 29 30 30 31 31 32 28 29 28 28 28 26 27 24

GFSGL_con_lsi_114.txt.gz
Lid_Strength_Index
9 5 2 2 2 2 3 3 3 3 3 3 2 2 2 2 2 2 1 2 2 2 2 2 2 2 2 3 3 3 4 5 5 5 4 3 3 3 2 3 3 3 3
10 8 3 4 3 3 3 3 3 3 3 3 2 2 2 2 2 2 2 3 2 2 2 2 3 2 2 2 3 4 4 4 5 5 5 4 4 3 3 2 2 2 2
11 10 8 8 4 3 3 3 3 3 3 3 3 2 2 2 2 2 2 2 2 1 2 2 2 2 2 2 3 3 3 3 4 4 4 4 4 4 4 4 4 2 2
12 11 11 10 8 3 4 3 3 3 3 3 3 3 2 1 1 1 2 2 2 2 2 2 2 2 2 2 3 3 3 3 3 4 4 5 4 4 4 4 4 3 3
12 12 12 11 11 9 3 3 3 3 3 3 3 3 2 1 2 2 2 2 2 2 2 1 1 3 5 4 2 2 3 3 4 4 5 5 5 5 5 4 3 3 4
13 13 12 12 11 12 11 5 3 3 3 3 3 3 5 8 12 11 5 2 2 2 3 2 2 6 6 8 7 7 5 3 3 4 4 4 4 3 4 4 4 5 6
13 13 13 12 12 12 13 13 12 10 7 8 8 8 10 12 13 12 11 2 2 3 3 2 3 5 6 4 11 12 12 12 12 4 3 3 3 5 5 4 5 5 6
15 14 14 13 13 13 13 14 15 14 14 14 14 13 13 13 14 13 11 7 9 11 11 10 8 9 11 7 7 11 13 13 13 12 12 13 13 13 11 9 9 13 14
16 16 16 15 14 14 15 15 15 16 16 16 16 15 15 15 14 13 11 12 13 15 14 14 13 13 14 10 10 14 15 15 14 14 14 14 14 15 14 12 13 13 15
17 17 16 16 16 16 15 15 15 15 16 16 16 16 15 16 14 14 14 14 16 16 16 16 16 15 14 14 13 14 16 17 16 16 17 17 17 17 17 16 15 14 16
16 16 17 17 16 17 16 16 15 15 16 16 17 16 16 16 16 15 15 16 17 17 17 17 16 16 15 15 16 15 16 16 17 17 17 18 18 18 18 18 17 16 17
15 16 17 17 17 18 17 17 17 16 17 17 17 17 17 17 16 16 16 16 16 17 18 17 17 16 16 16 17 16 15 16 16 17 18 19 20 20 20 19 19 19 19
15 17 17 17 18 17 18 17 18 18 18 18 18 18 18 17 17 16 16 16 17 18 17 17 17 17 17 17 17 17 16 17 18 18 19 19 19 20 20 20 20 20 20
14 15 16 17 17 17 17 17 17 18 18 18 18 18 18 17 17 17 17 17 17 18 18 19 19 19 19 19 18 18 17 17 18 19 21 23 22 21 21 20 21 21 21
14 14 15 16 17 17 16 16 16 16 16 17 16 16 17 17 16 16 16 17 17 18 18 19 20 20 21 21 20 20 20 20 20 20 21 21 21 21 21 20 21 21 21
14 15 15 15 16 17 17 17 14 14 14 14 15 16 16 15 14 15 15 16 16 17 19 20 21 21 21 21 21 22 21 21 21 21 21 21 21 21 21 21 21 20 20
14 14 15 15 15 15 17 17 19 17 14 14 14 14 14 15 15 16 16 16 17 18 21 21 22 22 22 21 21 21 22 21 21 21 21 21 21 21 21 21 21 19 20
16 15 15 16 17 17 18 19 19 19 19 19 16 15 15 15 15 15 16 17 20 20 20 21 21 22 22 22 22 22 22 22 22 22 22 22 22 21 21 21 21 21 20
16 16 16 17 16 16 18 18 19 19 20 20 18 17 18 16 16 17 17 20 21 21 20 21 21 21 22 22 23 23 23 24 24 24 24 23 24 22 23 22 22 23 22
16 18 18 18 18 17 19 20 19 20 20 19 20 19 19 19 21 21 21 21 22 23 23 22 22 22 23 23 24 25 25 25 24 24 25 25 25 24 24 24 24 24 23
17 18 20 19 18 17 18 22 22 20 20 20 20 20 19 21 22 22 22 23 22 22 23 23 24 24 24 25 25 27 27 28 27 27 26 25 27 25 24 24 24 23 23
19 20 19 18 20 20 18 18 21 22 20 20 21 21 21 22 22 23 24 25 25 24 25 25 24 25 26 26 27 29 29 30 30 30 29 27 26 26 25 27 27 28 25
18 18 18 18 19 22 22 19 20 20 21 24 23 22 22 24 24 24 26 30 26 27 27 27 27 27 28 29 29 29 30 32 32 33 32 31 28 28 31 29 28 28 29
19 19 17 17 17 19 22 24 21 19 21 24 25 25 25 27 28 28 30 32 29 32 33 30 27 27 29 33 31 30 29 33 32 33 34 33 30 28 30 28 28 31 29
21 21 20 20 19 19 20 21 25 26 22 21 22 21 21 24 25 29 29 28 28 28 28 29 27 28 29 30 30 30 31 32 34 33 32 31 31 31 30 29 31 28 29
18 20 21 22 22 23 21 21 20 21 22 23 24 25 24 23 25 28 27 26 26 26 26 28 26 26 27 27 27 29 31 31 32 32 35 30 31 31 31 30 29 30 27

GFSGL_con_lsi_117.txt.gz
Lid_Strength_Index
11 10 8 7 2 1 2 3 3 3 3 3 3 3 3 3 3 3 3 2 2 2 2 2 2 2 2 2 3 3 4 5 6 5 4 4 4 3 3 2 3 3 2
11 11 10 9 7 2 2 3 3 3 3 3 3 2 3 3 3 3 3 2 2 3 2 2 2 2 2 2 2 3 4 4 5 6 5 5 4 3 2 3 3 2 3
12 11 11 11 9 8 4 3 3 3 3 3 2 2 3 3 3 3 2 2 2 2 1 2 2 2 3 2 3 3 3 3 4 4 5 4 4 4 4 4 3 3 2
12 13 13 12 12 11 8 3 3 3 3 3 2 2 2 2 2 3 2 2 2 2 1 1 1 2 2 2 2 2 3 3 4 4 4 5 5 4 4 4 4 4 4
13 13 13 12 11 12 11 10 4 3 3 3 3 2 2 2 2 2 1 2 2 2 2 2 1 2 5 3 2 3 2 3 4 4 4 5 5 6 5 4 4 4 5
14 14 13 12 12 12 12 13 13 11 5 3 3 3 3 8 13 9 4 2 2 2 3 2 2 5 6 8 8 7 4 3 3 4 4 4 4 4 4 4 4 6 7
14 14 14 13 13 13 13 13 14 15 14 13 11 10 12 13 14 12 10 2 2 2 3 3 2 3 5 4 12 12 13 13 12 3 3 4 4 4 4 5 5 5 6
16 15 14 14 14 13 13 13 13 14 15 16 15 14 13 14 14 12 13 6 9 10 10 9 5 7 10 6 8 11 13 13 13 11 10 12 12 11 9 6 6 11 13
16 16 16 15 15 15 15 15 13 15 15 16 16 15 15 14 14 13 12 12 14 15 14 13 12 11 13 10 9 13 15 15 13 13 13 14 14 13 12 10 12 12 15
17 17 16 16 16 17 16 16 15 15 16 15 16 15 16 17 14 14 14 15 16 16 16 15 15 13 13 13 11 13 16 18 18 17 16 16 16 15 15 15 14 13 15
16 17 17 17 17 17 17 16 17 16 16 16 16 17 16 16 16 14 14 15 16 17 17 17 16 15 14 14 14 15 17 17 18 18 18 18 17 17 17 17 16 15 15
15 17 17 17 17 17 17 17 17 17 18 18 17 17 17 17 16 16 16 15 16 17 17 17 16 16 16 16 16 16 16 17 17 18 20 20 20 19 19 19 19 19 19
14 16 17 16 16 16 17 17 17 17 18 18 18 18 18 17 16 16 16 17 17 18 18 18 17 17 17 17 17 17 18 18 17 18 20 21 21 19 19 19 19 19 19
15 14 16 17 17 16 15 15 15 16 17 17 17 17 17 17 17 17 17 17 17 18 19 19 19 19 19 19 19 19 19 18 19 20 21 21 20 19 20 19 20 21 21
15 15 15 16 17 17 16 15 15 15 14 16 16 16 17 17 16 15 16 18 19 18 19 19 20 20 21 21 21 20 20 20 20 20 21 21 21 20 20 19 21 21 23
15 15 15 15 16 17 18 18 15 14 14 13 13 15 15 14 15 15 15 16 17 17 20 21 22 21 21 21 21 21 21 21 20 20 21 21 21 21 21 20 21 22 23
16 15 15 15 16 16 18 18 19 17 15 15 14 14 14 14 14 15 15 16 17 18 20 21 21 21 21 21 21 21 22 21 21 21 21 21 21 21 21 22 22 22 22
17 17 18 17 19 19 20 22 22 22 22 19 16 16 15 15 15 15 16 17 20 20 21 22 22 22 22 22 22 22 22 22 22 22 22 22 22 21 22 22 22 22 22
16 17 18 19 18 20 21 22 22 22 22 21 19 19 19 16 17 17 18 21 21 21 21 22 22 22 22 23 24 24 24 25 24 25 24 24 24 23 24 23 23 24 23
17 18 20 19 18 20 22 22 21 21 21 21 21 21 20 21 22 23 23 22 23 22 22 22 22 23 24 24 25 25 25 25 25 24 25 25 25 24 24 24 24 24 23
20 20 20 20 21 19 21 23 23 22 21 21 21 21 21 22 23 24 23 24 24 24 24 23 25 25 24 25 25 26 27 28 26 26 26 25 26 24 23 24 24 23 23
19 20 19 20 21 22 20 19 21 23 23 23 23 21 23 23 24 24 25 27 27 25 25 25 26 26 27 27 27 30 30 31 30 29 28 26 25 25 24 25 26 27 24
20 20 18 18 19 22 22 20 22 24 25 26 24 24 25 28 27 27 28 30 26 28 27 26 27 28 29 31 30 29 30 32 32 32 33 31 27 27 29 28 28 28 29
20 21 18 17 18 18 21 23 23 21 22 25 27 27 27 29 32 31 32 32 31 32 32 30 28 28 28 33 32 30 29 33 32 32 35 34 30 28 30 29 30 32 31
23 24 24 22 23 21 21 22 24 23 22 22 23 23 24 27 27 31 29 29 29 30 27 28 28 29 29 29 29 29 30 30 32 31 32 31 30 31 31 30 32 29 31
20 22 24 25 25 25 23 22 21 22 24 25 26 26 24 23 25 29 28 26 27 27 27 28 28 28 28 28 27 29 29 29 31 32 33 30 30 31 32 31 31 31 28

GFSGL_con_lsi_120.txt.gz
Lid_Strength_Index
11 10 10 9 9 7 2 1 2 3 3 3 2 2 2 3 3 3 3 4 4 4 3 2 2 2 2 2 2 2 3 4 6 5 4 3 3 3 3 3 3 3 3
11 11 11 11 10 9 9 6 2 3 3 3 3 2 2 2 3 3 4 4 4 4 2 2 2 2 2 2 2 2 3 3 5 6 5 5 4 3 3 3 3 2 2
12 12 12 12 12 12 10 9 4 3 2 2 2 2 3 2 3 3 4 4 4 4 2 2 2 2 2 2 2 2 2 3 4 5 5 4 4 4 4 3 3 3 3
12 13 13 13 12 12 12 12 11 8 2 3 2 2 2 2 2 3 3 4 4 3 2 2 1 2 2 2 2 2 3 3 4 4 4 5 4 4 4 4 4 4 6
13 13 13 12 12 13 12 12 12 13 11 10 2 2 2 2 2 2 3 3 3 3 2 2 1 2 5 3 2 2 3 3 3 4 4 4 5 5 5 4 4 4 5
14 14 13 13 13 13 13 13 12 13 13 13 12 10 6 10 13 10 5 3 2 2 2 2 2 5 6 8 8 7 4 3 3 4 4 5 5 4 4 4 4 6 8
15 15 14 13 13 13 13 13 13 13 13 14 14 14 14 13 14 11 11 2 2 2 2 2 2 3 5 3 11 12 13 13 12 2 3 4 5 4 4 4 4 5 7
16 16 16 15 15 14 13 14 14 14 14 14 14 15 14 14 14 13 12 6 8 11 11 10 4 5 5 7 8 11 13 13 12 11 10 11 11 10 7 5 5 11 12
17 17 16 16 16 16 15 15 15 15 15 15 15 15 15 15 15 14 14 13 14 15 14 14 14 10 13 10 9 13 15 15 14 13 14 14 14 13 12 8 11 10 13
18 18 17 16 16 16 16 16 15 15 16 15 15 16 16 17 15 14 14 15 16 16 15 15 15 14 13 13 10 12 15 16 16 16 16 16 16 16 16 14 13 12 14
16 17 17 16 16 16 16 16 16 16 16 16 16 16 16 16 16 16 15 15 16 16 16 16 15 15 15 15 15 14 16 16 17 17 17 17 18 19 19 19 18 15 14
15 16 16 16 15 15 15 16 16 16 17 17 17 17 17 16 16 16 16 17 17 18 18 17 16 15 16 16 16 16 16 17 17 18 19 19 20 20 20 19 19 19 19
15 15 16 16 16 15 16 15 15 15 16 16 17 17 17 17 17 17 17 17 17 19 18 18 18 18 18 18 17 17 17 17 19 20 21 21 21 20 19 19 19 19 19
15 15 15 17 17 17 16 15 16 16 16 16 16 16 16 17 17 18 18 18 18 19 19 19 19 19 19 20 20 19 19 19 20 20 21 21 20 20 21 20 20 20 20
15 15 15 15 16 17 17 16 16 16 15 16 16 16 17 17 16 15 16 18 18 18 19 20 21 21 21 21 21 20 20 20 20 20 20 20 20 20 20 20 20 20 21
15 15 16 16 17 17 18 18 15 15 15 14 14 15 16 15 15 15 15 15 16 18 20 21 21 22 22 22 22 22 21 21 20 20 20 20 21 21 21 21 21 21 22
16 15 16 16 17 18 19 20 22 19 16 16 15 15 15 15 15 15 15 16 17 18 21 22 22 22 22 22 22 22 23 22 21 21 21 21 21 21 21 21 21 21 22
18 18 19 18 20 22 23 23 23 22 23 22 18 17 16 16 16 16 16 18 21 20 21 22 22 22 22 22 22 22 22 22 22 21 21 21 21 21 21 21 21 21 22
17 18 19 20 21 22 22 22 22 22 22 21 20 19 20 18 18 18 19 22 23 22 22 22 22 22 23 23 24 23 24 24 24 24 23 22 22 21 22 22 22 22 21
19 19 20 20 21 21 22 23 22 23 23 23 22 22 22 22 24 24 24 24 23 23 22 23 23 23 24 24 25 24 24 24 23 23 24 24 23 23 23 23 23 24 23
22 21 21 20 21 20 22 22 23 24 24 24 25 26 24 24 25 25 25 25 25 25 25 24 25 26 25 25 25 25 26 26 25 24 23 23 23 22 22 22 22 22 23
22 21 20 20 20 20 18 18 20 24 24 24 26 23 25 26 25 25 26 28 27 25 25 26 26 27 27 27 27 28 28 28 28 27 25 24 23 23 22 23 23 23 22
22 22 20 19 19 20 21 19 21 23 24 26 24 24 24 29 30 28 29 32 28 28 27 27 27 27 28 29 28 28 28 29 29 29 27 25 24 24 24 24 24 24 24
23 24 21 21 21 19 22 23 23 21 21 25 28 27 28 30 32 31 31 31 30 31 31 30 28 27 27 29 29 27 27 29 28 28 29 26 24 25 25 25 25 27 26
26 25 25 23 25 25 22 21 24 26 25 26 24 22 21 26 25 30 30 29 28 29 26 27 27 28 28 29 28 28 29 31 31 31 29 28 27 27 26 26 26 25 26
22 23 24 25 24 26 27 27 24 24 25 26 26 24 23 21 22 29 28 25 26 27 27 28 27 27 27 26 26 28 29 29 30 32 30 26 26 26 26 26 27 25 25

GFSGL_con_lsi_126.txt.gz
Lid_Strength_Index
10 10 10 9 8 8 8 8 8 7 5 3 1 1 1 1 1 1 1 1 1 1 1 1 1 1 1 1 1 1 2 2 4 2 1 0 1 1 2 1 1 1 2
11 11 11 11 10 10 10 10 9 9 9 8 6 1 1 1 1 1 1 1 1 2 2 2 2 2 1 1 1 1 1 1 2 4 2 2 1 1 2 2 2 2 2
11 11 12 12 12 12 11 11 11 11 11 10 10 10 8 2 2 1 1 1 1 1 1 2 2 2 2 2 2 1 1 1 1 2 3 2 2 1 2 2 3 3 2
12 11 12 12 12 12 11 12 12 12 13 13 12 12 12 13 13 12 10 3 2 2 2 1 1 1 2 3 2 1 1 2 2 2 3 3 3 2 2 3 4 3 3
13 12 12 11 12 11 12 11 11 12 13 14 13 14 14 14 14 14 12 9 4 2 2 2 1 2 5 4 2 1 1 2 3 3 3 3 4 4 4 3 4 4 3
13 13 12 11 10 11 11 11 12 11 13 12 14 14 15 15 15 14 13 8 6 3 2 2 2 6 6 9 9 7 3 2 3 3 3 4 4 4 3 3 4 5 7
14 14 13 11 11 10 10 11 11 12 12 13 13 13 15 15 14 14 14 12 13 13 13 13 6 2 5 3 9 10 9 9 7 2 3 3 3 2 3 3 4 4 5
14 15 14 13 12 12 12 12 12 12 12 12 13 13 13 14 15 15 15 13 14 14 15 15 14 13 14 13 3 5 6 9 9 7 4 1 1 0 1 1 3 6 12
15 15 14 14 14 13 13 13 12 12 13 13 13 14 14 14 15 15 14 14 15 15 16 16 16 16 15 14 10 7 12 15 14 13 14 14 14 13 11 4 9 9 12
14 14 14 14 14 14 13 13 12 12 12 13 13 14 15 15 14 14 14 15 17 17 17 17 17 17 16 15 12 10 12 14 16 15 15 15 16 15 15 14 8 8 12
12 12 12 12 13 13 12 12 12 12 12 12 13 13 14 15 15 15 15 15 15 16 17 18 18 17 16 16 16 16 16 16 17 16 17 17 17 18 18 17 16 14 13
12 12 12 12 13 13 13 13 12 12 12 13 13 12 12 13 14 14 15 16 16 16 16 16 17 17 17 18 18 17 17 17 17 17 19 19 19 19 19 18 18 18 17
12 12 12 12 11 11 13 13 13 13 13 13 13 13 13 12 12 14 14 14 15 15 16 17 17 17 17 17 17 18 19 19 19 20 20 20 20 19 18 18 18 18 18
12 12 12 12 12 11 12 13 14 14 14 14 14 14 14 13 13 13 13 13 13 13 13 14 16 17 17 17 17 17 17 18 20 20 20 19 19 19 19 18 18 18 20
12 12 12 11 11 11 11 12 13 14 14 15 15 14 15 15 15 14 14 14 14 14 13 12 13 15 16 17 17 17 17 18 18 18 19 19 19 19 19 18 18 19 20
13 12 12 12 12 12 12 12 14 14 14 15 15 15 14 14 15 14 14 15 14 14 14 15 15 15 15 15 17 18 18 19 19 18 19 19 19 19 19 18 18 18 19
13 13 13 13 13 13 13 13 14 12 13 14 15 16 15 15 15 15 15 14 14 13 14 15 16 16 16 16 15 16 17 18 17 18 18 19 19 19 19 19 19 19 19
14 15 13 13 13 13 13 13 13 14 14 14 14 15 16 16 16 16 15 14 14 14 15 15 16 15 15 16 16 16 16 16 16 17 17 17 18 18 19 19 19 19 19
14 14 14 13 13 14 13 13 14 14 14 14 14 15 15 16 16 16 16 15 16 16 16 16 16 16 16 16 16 15 15 16 15 15 16 17 17 17 19 19 19 19 19
15 16 15 14 14 14 14 14 14 14 14 14 15 16 15 14 15 16 16 16 16 16 17 17 17 17 17 16 16 16 16 15 15 15 15 15 15 16 17 17 17 18 18
15 15 16 14 14 14 14 14 14 14 14 14 14 15 16 14 14 14 14 15 16 16 16 16 17 18 17 17 17 17 17 17 17 16 15 15 15 15 15 16 16 17 17
15 15 15 15 15 15 15 14 13 13 13 13 12 12 13 12 13 13 13 14 14 14 14 15 16 17 18 18 18 17 17 18 18 17 16 16 15 15 16 16 16 16 16
16 16 16 16 15 15 14 13 13 12 12 12 12 12 12 12 12 12 13 13 13 13 14 14 15 16 17 17 17 17 18 19 18 18 17 16 16 16 16 16 17 17 17
16 16 16 16 15 15 14 13 12 12 12 12 12 11 11 11 11 12 12 12 13 13 13 14 15 17 18 18 17 17 18 19 18 17 17 16 16 16 16 17 17 18 18
16 16 16 16 15 14 14 13 12 12 12 12 11 11 11 11 11 11 12 12 13 13 13 14 15 16 17 18 19 19 21 21 20 21 16 16 17 17 17 17 17 17 18
16 16 15 15 14 14 13 13 13 12 12 12 11 11 11 11 11 12 12 12 13 13 13 13 14 16 16 16 18 19 20 21 20 20 17 15 16 16 16 17 20 16 18

GFSGL_con_lsi_132.txt.gz
Lid_Strength_Index
10 9 10 10 11 11 11 12 11 11 11 11 11 11 11 12 12 10 9 3 2 2 1 2 2 1 2 1 1 1 2 2 5 3 2 2 2 2 2 1 1 1 2
10 10 10 11 11 11 11 11 11 11 11 12 12 12 12 13 13 13 12 10 8 7 2 2 2 2 2 1 2 2 2 2 3 4 3 3 2 2 1 2 1 0 -0
11 11 10 11 11 11 11 12 12 12 12 12 13 13 13 14 14 13 11 10 9 7 7 9 3 2 2 2 2 2 2 2 2 3 3 2 2 2 2 2 2 1 0
13 12 12 12 11 11 11 12 12 12 12 12 13 13 13 13 13 12 11 12 12 12 12 11 10 12 13 9 3 2 2 2 2 3 3 3 3 3 2 3 4 2 2
14 14 13 12 12 11 12 12 12 12 13 13 12 14 14 14 14 13 12 12 13 13 13 13 11 13 14 14 13 12 6 3 3 3 4 3 3 4 4 3 4 4 3
14 14 13 13 13 13 13 13 13 13 13 14 14 14 15 15 14 14 13 13 14 14 15 15 13 14 15 15 14 14 13 10 5 3 4 4 4 3 4 3 4 5 6
15 15 14 14 14 14 13 14 14 14 14 14 15 15 15 16 15 14 13 13 14 15 16 16 16 15 16 15 14 13 11 11 13 8 4 3 3 2 3 4 4 4 5
14 14 14 14 14 13 13 13 13 13 13 14 14 14 15 15 14 14 14 13 13 14 15 16 16 16 16 16 14 14 13 14 14 13 14 12 10 4 3 3 3 4 11
14 13 13 14 14 14 14 14 13 13 13 13 13 14 15 16 15 15 15 15 15 14 14 14 15 15 15 14 16 16 16 14 13 14 14 14 15 15 16 7 5 9 15
12 13 12 12 13 14 13 14 13 13 13 13 13 13 13 15 13 13 13 14 15 15 15 15 15 15 15 14 16 17 19 18 17 16 15 15 16 16 17 16 16 7 11
11 11 11 11 12 13 13 13 13 13 13 14 14 14 14 15 15 13 13 15 15 14 14 14 14 13 14 15 15 16 17 17 18 18 18 18 17 17 18 17 17 16 15
12 11 12 11 11 12 14 14 15 15 15 16 16 16 15 16 15 15 14 14 14 14 14 13 13 13 13 13 14 15 15 16 17 18 19 19 19 19 18 18 17 17 16
12 13 12 13 12 12 13 14 15 15 16 17 17 17 16 16 16 15 14 13 14 14 13 12 13 12 13 13 13 14 15 16 17 18 19 18 18 18 18 18 17 18 18
13 13 12 13 12 12 12 12 14 15 16 17 17 18 18 17 17 16 16 14 13 14 13 13 13 13 14 15 15 14 15 16 16 17 19 18 16 17 18 18 19 18 20
13 12 13 12 12 13 13 13 13 15 15 16 17 17 18 18 17 15 15 15 14 15 14 15 16 16 15 15 15 16 15 15 16 16 16 18 18 18 18 17 18 19 20
13 14 13 13 13 13 13 13 12 13 14 14 14 16 17 15 14 14 15 14 14 14 16 18 18 18 18 17 17 16 16 16 16 15 16 17 17 18 19 18 18 19 20
14 15 14 13 13 14 14 14 15 13 12 12 14 14 15 15 14 14 15 15 15 16 18 18 19 19 19 18 18 18 17 16 15 15 16 16 17 17 18 19 19 19 20
14 15 15 14 14 14 14 14 14 15 16 16 14 14 15 16 15 15 15 17 19 18 19 19 20 20 19 19 18 18 17 17 16 15 15 15 15 16 17 18 18 18 20
14 15 15 14 14 15 14 15 15 15 16 16 16 16 17 16 15 15 15 19 20 20 19 19 19 19 19 19 19 18 18 18 18 18 16 16 15 15 16 17 17 18 18
14 16 16 15 14 15 15 16 16 16 17 17 17 18 18 18 18 18 18 19 19 18 18 17 16 16 17 17 17 17 16 16 17 18 18 16 15 15 16 16 16 17 17
14 14 17 15 15 16 16 17 16 17 17 17 17 17 18 18 18 18 17 17 17 16 16 16 16 17 17 17 16 16 16 17 17 17 17 18 16 16 16 16 16 16 16
15 15 15 16 16 16 17 16 17 17 17 17 17 17 19 17 16 16 15 17 17 15 14 16 16 16 16 16 16 16 17 18 18 18 18 17 15 15 15 16 16 17 17
15 16 16 16 16 17 17 16 17 17 17 17 17 17 16 15 15 15 14 15 16 17 14 16 17 15 15 17 15 16 18 19 19 18 18 19 15 15 15 15 16 17 17
16 16 16 16 17 17 17 17 17 18 17 17 16 15 14 14 15 15 14 14 16 17 15 16 14 17 17 17 18 18 18 18 19 18 19 17 15 14 15 15 15 16 16
15 16 16 17 17 17 17 17 17 17 16 16 15 14 14 14 14 15 14 14 14 15 17 15 13 14 17 16 19 20 22 20 19 19 18 17 15 15 16 16 17 16 18
16 16 16 16 16 16 16 16 16 16 16 15 14 14 13 13 14 13 14 16 15 17 16 15 15 14 15 16 18 19 22 21 21 21 20 15 15 17 16 16 16 16 17

GFSGL_con_lsi_135.txt.gz
Lid_Strength_Index
13 12 10 9 9 10 11 11 11 12 12 12 13 13 12 12 11 10 9 9 8 8 8 8 5 3 1 2 2 2 2 2 4 3 2 2 2 1 1 2 2 2 3
14 13 13 11 12 12 12 12 12 13 13 13 13 13 14 13 12 11 12 12 11 12 10 10 11 10 12 9 3 2 2 2 3 4 2 2 2 2 1 2 2 1 1
14 14 13 12 12 13 13 13 12 13 14 14 14 14 15 14 13 12 12 12 13 12 12 11 13 13 14 14 12 10 5 2 3 3 4 2 2 3 3 3 2 2 2
14 14 14 14 13 12 13 13 13 13 14 15 15 15 15 14 13 13 13 13 13 13 13 12 13 14 14 14 12 12 11 10 3 3 3 3 3 2 2 3 3 2 2
14 14 14 13 13 13 13 13 14 14 14 14 15 15 15 15 14 13 13 14 14 14 14 14 13 13 14 14 13 13 12 11 9 7 4 3 3 4 3 2 3 3 2
15 15 14 14 14 13 14 14 14 15 15 15 15 16 16 15 14 14 13 14 14 15 15 15 14 14 14 14 13 13 13 13 13 11 8 7 4 3 3 3 3 4 5
14 15 15 15 15 14 14 14 15 15 15 16 16 16 16 16 14 14 14 14 14 15 16 15 15 15 15 15 15 14 14 14 16 14 14 13 13 13 14 5 4 3 4
14 14 15 15 15 15 15 16 16 16 15 16 17 17 17 16 15 15 15 15 15 15 15 16 16 16 16 16 16 16 16 16 16 15 14 15 15 14 13 12 11 3 7
14 14 14 14 15 15 16 15 15 16 16 16 16 17 18 17 15 14 16 16 16 15 14 15 15 15 14 14 15 16 17 17 16 16 15 15 15 15 15 14 12 9 12
13 13 12 13 14 15 15 15 14 15 16 16 16 17 16 18 15 14 14 15 16 15 14 14 13 13 13 13 15 16 17 16 17 18 18 16 16 16 16 16 15 15 14
12 13 12 13 14 15 15 16 16 16 17 18 18 18 18 18 17 15 14 16 16 16 15 15 14 13 13 13 14 15 15 15 16 17 17 17 17 16 16 16 17 17 16
13 13 14 14 13 14 16 16 17 17 18 19 19 19 18 18 15 15 15 14 14 17 16 14 14 13 14 14 14 14 14 15 16 17 17 18 17 17 17 16 16 17 17
14 14 14 14 14 14 15 17 17 17 18 18 18 19 18 17 17 14 14 14 14 16 15 14 14 14 14 15 15 14 16 16 16 17 17 17 17 16 16 16 16 16 17
14 15 14 14 14 14 14 15 17 18 18 18 19 20 20 18 17 16 16 16 15 16 17 17 18 16 18 18 18 17 16 17 16 16 17 17 17 17 17 16 17 18 19
15 15 14 14 15 15 15 16 15 19 16 18 21 22 21 20 17 15 16 17 17 17 19 19 20 20 20 20 19 19 18 18 18 16 16 17 17 18 18 16 17 18 20
15 16 15 15 15 15 15 15 13 14 13 14 14 16 21 15 14 14 15 16 16 17 20 21 22 22 22 21 21 20 20 19 19 18 17 17 17 17 17 17 17 18 19
16 16 16 15 15 15 16 16 19 17 13 13 13 14 15 15 15 15 15 17 17 19 22 22 22 24 23 22 22 21 21 20 19 20 19 18 17 17 17 17 17 18 19
18 18 20 20 22 20 22 20 21 23 23 22 17 16 16 16 15 16 16 18 21 21 22 22 22 22 22 22 22 21 21 20 20 20 20 19 17 17 17 18 17 18 18
17 20 21 21 21 20 19 20 20 22 23 23 22 21 21 16 16 16 17 25 26 22 21 21 22 21 22 22 22 21 21 20 20 20 20 20 19 17 17 17 17 17 17
18 18 19 19 20 21 22 22 21 22 22 23 23 25 23 22 26 27 28 29 28 25 22 21 20 20 21 21 20 20 20 21 21 20 19 19 19 16 15 16 16 17 17
20 21 20 20 22 22 23 22 21 24 24 25 26 26 23 24 25 26 24 23 25 24 24 20 22 21 23 22 19 21 21 23 22 21 20 19 19 16 14 14 15 16 17
21 21 20 22 21 23 23 22 24 25 24 24 25 22 22 25 24 23 23 22 22 22 22 22 22 21 21 22 21 27 22 23 22 21 20 19 18 16 14 13 14 15 15
22 22 21 21 22 23 24 24 25 25 25 25 23 22 23 25 26 23 23 22 19 22 21 21 24 19 21 24 24 23 24 23 21 21 20 20 18 17 14 14 14 15 15
21 22 21 22 24 23 26 27 26 23 23 25 27 26 25 25 25 24 24 24 23 22 23 24 21 16 18 23 25 23 21 24 22 21 21 20 18 15 15 15 15 15 15
24 24 24 23 24 25 27 26 26 27 26 26 25 26 23 24 21 23 24 22 22 23 23 23 21 18 18 20 21 22 25 23 24 24 21 19 16 17 16 16 15 15 17
21 21 22 24 24 26 26 26 24 24 23 22 22 22 21 21 20 23 21 22 21 20 22 22 21 21 18 18 18 22 24 23 23 22 21 21 18 18 17 17 16 15 16

GFSGL_con_lsi_138.txt.gz
Lid_Strength_Index
14 14 13 13 11 9 10 11 11 11 11 12 12 12 11 12 11 10 10 11 11 10 10 11 12 11 11 11 9 7 3 2 4 3 2 1 2 2 1 2 1 2 2
14 14 14 14 14 13 13 12 12 13 13 13 13 13 12 13 13 13 13 13 13 12 13 13 14 12 14 13 12 10 10 8 7 4 3 2 2 2 1 1 1 1 1
14 14 14 14 14 14 14 13 14 14 14 14 14 14 14 13 14 14 14 15 15 15 14 15 15 15 15 15 12 13 11 10 8 8 4 3 3 2 2 1 1 1 1
14 14 14 15 14 13 15 14 15 15 15 16 15 15 15 14 14 14 15 16 16 16 15 15 15 15 15 15 14 13 11 11 10 9 7 6 2 1 2 2 3 2 2
15 15 14 14 14 14 14 15 16 16 16 16 16 16 15 15 15 14 15 16 16 16 16 15 14 14 14 14 14 14 13 14 13 11 9 10 8 9 8 6 3 2 2
15 16 15 15 15 15 15 15 16 17 17 17 16 16 16 16 15 15 15 15 16 16 16 15 15 15 15 15 14 14 14 15 15 15 13 13 13 12 13 13 11 8 5
15 16 16 16 16 16 16 16 16 18 18 19 18 18 17 16 16 15 15 15 16 16 16 16 16 15 15 16 15 15 15 15 16 16 15 15 15 15 15 16 14 13 11
15 15 16 16 16 16 17 17 17 17 19 19 20 19 18 17 15 16 16 16 16 16 16 16 16 16 16 16 17 17 17 17 16 16 17 16 16 15 15 16 15 14 12
13 14 14 15 16 16 16 17 17 17 17 18 18 18 18 17 14 14 15 16 16 16 15 15 14 15 14 13 16 17 17 17 16 16 16 15 15 16 15 16 17 17 16
14 13 14 15 16 17 16 17 17 17 18 18 18 18 17 18 14 14 15 16 17 17 15 16 14 14 14 14 16 16 17 17 16 16 17 17 16 16 16 16 17 19 19
13 13 13 15 16 16 16 17 17 18 18 20 20 20 19 17 17 14 13 16 17 17 16 18 17 15 15 15 15 17 17 16 16 16 16 16 16 16 15 16 16 17 19
14 14 14 14 14 15 18 17 18 18 19 20 20 20 19 20 15 15 14 15 15 17 18 18 18 15 15 16 16 15 15 16 16 16 17 18 18 17 17 15 15 16 16
14 14 15 15 15 15 16 18 18 18 19 19 19 20 19 18 17 15 15 15 16 19 18 18 17 17 17 18 17 17 18 18 18 18 18 18 18 17 17 16 15 16 16
15 14 15 15 15 15 15 16 18 19 19 18 19 20 21 19 17 17 18 18 17 18 20 21 22 19 22 22 21 20 20 20 20 20 18 17 17 18 18 17 16 17 18
15 14 15 15 15 16 15 17 15 16 17 18 21 23 21 20 17 15 17 18 19 19 22 22 22 23 23 23 23 22 21 21 21 21 21 20 19 18 18 17 17 17 19
16 16 16 16 16 16 16 16 14 14 13 13 14 17 21 15 15 15 16 17 17 19 23 24 24 24 24 24 24 24 23 22 22 21 22 22 21 20 18 18 18 19 19
16 16 16 16 16 16 17 18 20 18 14 14 15 15 15 15 16 16 17 18 18 20 24 25 25 25 25 24 24 24 24 23 23 23 23 23 22 21 19 19 19 19 19
17 19 21 22 24 21 23 22 24 25 25 23 18 16 16 16 16 16 17 19 23 22 23 27 26 24 24 24 24 24 24 24 24 25 24 23 23 23 20 19 19 19 19
17 20 22 23 23 22 23 23 23 23 25 26 24 21 23 17 17 17 18 27 29 27 24 24 26 24 25 24 26 25 26 25 25 25 24 23 22 22 20 18 18 19 19
19 20 21 21 22 23 23 24 23 24 25 27 26 27 25 24 28 31 31 32 31 27 26 24 23 23 26 25 27 30 24 24 24 24 24 23 22 21 20 18 16 17 17
24 22 22 21 23 24 24 24 24 26 26 27 27 29 26 26 28 28 27 26 27 26 28 25 26 27 25 25 22 26 26 28 24 24 24 22 22 22 20 17 16 15 15
23 23 22 23 23 24 25 24 25 27 26 26 26 24 25 28 27 26 26 27 27 26 25 25 24 22 21 21 24 30 27 28 27 24 24 23 22 21 19 16 16 15 15
23 23 23 22 23 24 26 25 26 27 26 27 25 24 25 28 29 26 26 28 26 26 24 24 27 22 21 23 27 25 26 24 24 25 26 23 21 20 18 16 16 15 15
23 24 22 23 25 24 28 29 27 25 24 25 28 26 26 25 27 26 25 26 26 27 28 28 25 21 20 24 25 22 21 24 25 24 25 22 21 18 17 17 16 15 16
25 26 25 24 25 26 29 27 28 28 28 27 26 28 24 24 23 23 24 24 24 27 23 25 24 23 23 23 22 21 25 25 26 26 22 22 22 22 19 17 17 16 17
22 23 24 25 24 25 26 26 25 28 27 25 25 25 23 20 18 19 20 22 24 22 22 22 22 22 21 21 20 20 24 25 26 25 23 22 23 23 22 20 18 18 17

GFSGL_con_lsi_141.txt.gz
Lid_Strength_Index
14 14 14 13 14 14 12 12 12 11 11 9 10 11 11 11 11 12 12 12 12 13 13 14 13 12 12 11 10 8 8 7 6 3 2 2 3 3 2 1 2 1 1
14 14 14 14 14 14 15 13 14 13 12 12 11 12 12 13 13 13 15 14 14 14 14 15 15 13 14 13 12 12 12 9 8 7 5 3 2 2 2 2 1 1 1
14 14 15 15 15 16 16 16 15 15 15 14 13 14 14 14 14 14 14 15 15 16 16 16 16 15 16 15 14 13 14 11 11 9 8 6 3 3 4 1 1 1 1
15 15 15 15 15 15 16 17 17 15 15 15 16 15 15 15 15 15 15 16 16 16 16 16 16 16 16 16 16 16 15 15 14 13 10 10 9 10 9 10 11 7 6
16 16 16 15 15 15 16 17 17 17 17 16 16 17 16 16 15 16 16 16 16 16 16 16 16 16 15 15 16 17 16 17 16 14 14 13 13 13 14 13 13 11 9
16 17 16 16 16 17 16 17 18 18 18 17 17 17 17 16 15 15 16 16 16 17 17 17 17 16 16 16 15 15 15 17 17 17 16 16 15 15 15 15 14 14 13
16 16 16 16 17 17 18 18 19 19 19 19 18 17 17 17 16 15 15 17 17 17 17 17 17 16 16 16 16 16 16 16 16 16 18 17 17 16 16 16 16 15 14
15 15 15 15 16 16 17 18 18 18 18 19 18 18 17 16 16 16 16 17 17 17 17 17 17 17 16 17 17 17 17 17 17 16 17 17 16 16 16 16 16 16 15
15 15 15 15 16 16 17 17 17 18 18 18 17 17 18 16 14 15 16 17 16 18 17 16 16 17 15 15 17 17 17 17 15 15 15 15 15 15 15 16 17 18 18
14 15 15 15 16 17 17 17 17 17 18 18 18 18 16 18 14 15 16 17 19 19 19 18 16 16 16 16 18 17 19 18 17 16 17 18 18 18 16 16 16 18 18
13 14 14 15 16 17 17 17 18 18 19 20 19 18 18 17 17 15 15 18 19 20 20 21 19 16 16 16 16 17 18 17 18 17 17 20 19 19 19 19 17 17 18
14 14 14 14 15 16 18 17 18 18 19 20 20 19 18 19 16 16 16 17 18 21 21 21 20 17 17 17 18 17 17 19 20 21 19 18 18 19 18 18 19 18 19
14 15 15 15 15 15 17 18 18 18 19 19 19 20 20 18 18 17 16 17 17 21 20 19 18 19 19 20 19 19 21 22 22 22 22 21 20 18 18 18 17 18 18
14 14 15 15 15 15 15 16 19 20 19 19 20 21 22 19 18 19 19 20 19 20 22 24 24 20 25 25 23 23 23 23 23 23 23 22 21 20 19 18 18 18 19
14 14 15 15 16 16 15 16 15 18 16 19 23 24 23 23 17 17 18 19 21 21 25 25 24 25 26 25 25 25 25 24 25 25 24 23 23 23 22 19 19 18 19
15 15 15 16 16 16 17 17 14 15 14 14 15 17 21 15 15 15 16 17 17 19 27 27 27 28 28 27 27 26 26 26 26 26 26 24 24 24 24 22 19 20 20
15 15 16 16 16 18 19 19 22 19 15 15 15 16 16 16 16 16 17 18 18 20 25 28 31 30 28 26 26 26 27 27 26 27 27 26 25 25 24 23 21 21 21
17 18 20 22 23 23 25 24 25 26 27 26 19 17 16 16 17 17 17 20 24 23 25 28 29 26 25 25 25 26 27 27 27 28 28 28 26 25 24 23 22 21 20
16 19 21 22 22 22 23 24 24 25 26 27 25 22 23 18 17 18 18 28 30 28 25 24 27 26 26 25 29 31 32 30 29 31 28 27 26 24 23 22 20 19 19
17 19 19 19 21 22 24 24 24 26 26 28 28 27 26 24 28 32 32 33 32 28 27 25 24 24 27 27 31 35 32 31 27 26 27 27 25 24 23 22 20 18 17
20 20 21 20 22 23 25 25 25 27 27 27 28 30 27 27 28 29 27 29 28 26 28 27 27 29 28 27 26 29 29 32 28 26 26 25 25 24 21 20 19 17 17
20 20 20 22 23 24 25 24 26 27 27 27 26 24 26 29 27 26 25 26 27 27 26 28 27 26 25 24 24 28 27 30 29 27 26 26 24 22 21 20 19 18 17
21 21 21 22 23 25 26 25 26 28 26 26 25 24 24 25 26 25 25 26 26 26 26 27 31 25 23 26 25 22 25 23 24 27 28 26 23 22 21 19 19 18 17
21 23 22 23 26 24 28 28 27 26 25 26 29 26 26 26 26 25 23 25 26 27 28 28 26 24 23 25 25 24 22 22 24 25 28 25 23 21 21 20 19 18 18
25 26 27 24 25 27 29 26 26 24 26 28 27 27 25 26 24 24 24 22 21 23 24 24 24 24 24 23 21 21 23 23 27 27 27 22 22 24 23 22 20 18 19
21 20 21 23 26 28 27 28 27 25 26 25 26 29 27 24 23 22 21 20 19 19 20 22 22 22 22 21 20 20 22 24 27 27 30 25 25 23 23 23 22 19 18

GFSGL_con_lsi_144.txt.gz
Lid_Strength_Index
15 14 14 14 15 15 16 15 14 13 12 11 11 11 10 10 11 11 12 12 13 13 13 13 13 12 12 11 10 10 9 8 7 3 2 2 2 3 2 2 1 1 1
15 15 15 15 16 17 17 17 16 15 13 13 12 13 13 12 12 12 14 13 14 16 15 15 14 13 14 13 13 13 11 11 10 8 6 7 8 10 8 7 8 4 4
15 16 16 16 16 18 18 17 17 16 15 15 14 14 14 15 14 13 14 15 15 16 16 16 16 15 16 16 15 15 14 13 12 11 11 11 10 12 11 10 11 11 10
17 16 17 17 17 17 18 18 17 17 16 16 16 16 16 15 15 15 15 16 16 16 16 16 16 16 17 16 17 17 16 15 14 14 14 14 14 14 13 15 14 12 12
17 17 17 17 17 17 18 18 18 18 17 16 17 17 16 16 15 16 16 16 17 18 16 16 17 16 15 16 16 17 17 17 17 16 17 16 17 17 17 16 15 14 12
17 17 17 17 18 18 19 18 18 18 18 17 17 18 18 17 16 17 17 17 18 18 18 17 17 17 17 16 16 16 16 17 18 18 18 18 18 18 17 17 17 16 16
16 16 16 17 17 18 18 19 19 19 18 18 18 17 18 18 17 17 18 19 19 18 19 19 18 17 17 18 17 18 17 17 18 17 18 18 18 17 17 17 17 17 17
16 16 15 15 17 17 17 18 18 18 18 18 17 17 16 16 15 16 16 19 19 20 18 19 18 17 17 17 17 18 18 17 17 17 18 18 17 17 17 17 17 17 16
16 15 15 16 16 17 18 18 17 18 18 17 17 17 17 16 15 16 17 18 19 20 19 17 17 16 15 16 18 18 18 19 16 15 15 16 16 16 16 17 18 18 19
15 14 15 15 16 17 17 17 17 17 17 17 17 18 17 18 15 16 18 19 21 21 21 19 17 17 16 16 18 19 20 20 20 19 18 18 18 18 17 18 19 19 19
13 14 14 15 16 16 17 16 17 18 18 19 19 18 19 17 17 16 17 20 21 22 22 22 20 18 17 17 18 19 20 21 22 22 21 19 19 19 19 18 19 19 20
14 14 14 14 14 15 18 17 17 18 19 19 19 19 18 19 16 16 17 18 20 22 23 22 21 19 19 18 20 19 20 22 23 23 23 22 22 21 20 18 18 19 19
14 14 14 14 14 14 16 18 18 18 18 19 18 19 19 18 19 17 17 18 19 23 21 21 20 20 21 22 20 21 23 24 24 25 25 24 23 22 21 19 17 17 17
14 14 14 15 15 15 15 16 19 19 19 19 19 20 21 18 18 18 19 20 20 22 23 24 24 21 25 25 24 24 25 25 26 27 26 25 23 23 22 21 20 18 18
14 14 14 15 15 16 16 16 15 18 17 19 23 24 25 22 17 17 18 19 21 21 23 24 24 25 26 26 26 26 26 26 27 27 27 27 25 24 23 22 21 19 20
14 14 15 15 16 16 17 17 14 15 14 15 15 18 21 16 15 15 16 17 17 19 26 30 30 31 29 28 27 26 26 26 26 26 27 27 26 26 25 23 22 22 21
15 15 15 15 16 17 18 18 22 20 16 16 16 16 15 16 16 16 16 17 18 20 27 29 32 31 29 25 25 25 26 26 26 27 27 28 27 26 26 25 24 23 23
17 17 18 21 22 21 24 23 26 26 27 26 20 17 16 16 16 16 17 19 23 23 24 26 28 26 24 24 24 25 26 27 27 27 28 29 29 28 27 26 25 25 24
16 20 21 22 22 21 21 22 24 24 25 26 25 22 23 18 17 17 18 26 28 26 24 24 25 24 24 24 26 28 31 29 29 30 29 29 30 28 28 26 25 24 22
17 18 18 19 20 21 22 22 23 24 24 27 27 27 25 24 27 31 32 33 31 26 26 24 23 23 25 26 27 30 29 29 28 28 29 29 29 28 26 24 23 22 20
20 19 19 20 21 22 23 23 24 25 24 27 27 29 28 26 25 26 25 25 26 25 25 24 25 26 26 26 25 26 27 30 28 28 27 26 27 27 24 22 21 20 19
21 20 20 21 21 23 24 23 25 26 26 26 25 24 26 28 26 25 24 24 24 25 24 25 25 24 25 24 25 27 27 28 27 26 26 27 26 24 23 21 21 20 19
20 21 20 20 20 23 25 24 26 27 26 26 26 25 24 26 27 25 25 25 23 22 22 24 27 25 24 26 26 24 25 24 23 24 28 28 24 23 22 21 21 20 19
21 22 20 22 24 23 26 28 28 24 23 24 26 27 27 27 28 27 27 25 24 23 23 23 24 23 22 24 24 23 23 24 23 23 27 27 23 21 22 22 21 21 20
21 23 24 24 23 26 29 29 30 30 28 26 28 29 26 29 26 27 27 26 24 23 22 21 20 20 21 22 23 23 24 23 23 26 25 25 24 24 23 22 21 20 19
19 20 22 22 22 26 28 30 30 30 31 30 31 32 31 28 27 30 28 27 26 25 24 23 21 21 21 19 19 19 22 22 23 27 27 24 25 24 22 22 21 19 18

GFSGL_con_lsi_147.txt.gz
Lid_Strength_Index
13 13 14 14 15 15 16 15 14 14 14 13 13 12 13 12 12 12 10 10 12 12 11 11 12 12 11 10 9 9 10 7 4 5 5 5 10 10 9 8 7 7 6
14 14 15 15 15 16 16 16 16 15 15 14 13 13 13 14 14 14 13 13 14 14 13 12 13 13 13 13 14 13 12 11 7 7 10 9 11 11 11 11 11 9 9
15 15 16 16 16 16 16 16 15 15 15 16 15 15 14 15 15 16 16 15 15 15 15 15 15 15 16 15 15 14 13 12 12 12 13 13 12 14 13 12 12 12 10
15 15 16 16 16 16 16 16 16 15 16 16 16 15 16 15 15 15 16 16 17 16 17 16 16 16 17 17 17 17 16 15 15 15 16 16 16 15 15 16 15 13 13
15 15 16 16 16 16 16 16 16 16 16 16 17 16 16 17 17 17 17 17 18 18 17 18 17 16 16 16 17 17 17 17 16 17 17 17 18 18 18 17 16 15 12
15 15 15 16 16 16 16 16 16 16 16 16 17 17 18 17 17 17 17 18 18 18 18 17 17 16 17 17 16 16 17 17 17 17 18 18 18 18 17 17 17 17 17
15 15 14 15 16 16 16 16 16 16 16 17 17 17 17 18 17 18 18 18 18 18 18 18 18 17 17 16 17 17 17 17 18 17 18 19 18 18 17 17 17 18 18
14 15 14 14 15 16 16 16 16 16 16 16 16 15 16 16 17 17 17 20 20 18 18 17 17 16 16 16 16 18 18 18 17 17 17 18 17 17 18 17 17 16 16
15 15 15 15 15 15 17 16 15 16 16 16 16 16 16 16 16 17 17 18 18 19 17 16 16 17 16 16 16 17 18 18 17 16 16 16 16 16 16 17 19 18 19
14 14 14 15 15 16 16 16 15 15 15 16 16 16 16 16 16 16 17 18 19 19 19 18 17 17 18 18 18 18 20 20 19 19 18 17 17 17 17 16 17 18 17
14 14 13 14 15 15 15 15 15 16 16 16 16 17 17 16 16 16 17 19 19 20 20 19 18 18 18 19 19 20 21 21 20 19 18 18 18 18 17 17 16 17 18
13 14 14 13 13 14 15 14 15 15 16 17 17 16 16 16 16 16 17 18 19 20 20 20 19 19 19 19 20 20 21 21 20 20 20 20 20 19 18 17 17 16 15
13 14 14 13 13 13 14 15 14 14 15 16 16 17 16 16 16 17 17 18 19 20 19 19 19 20 20 20 20 21 21 21 21 21 22 21 20 19 18 17 16 15 14
14 14 13 14 14 13 13 13 14 15 15 16 16 16 16 15 16 16 16 17 18 19 19 20 20 20 21 21 20 20 20 21 22 22 22 21 19 19 19 18 18 17 16
14 14 14 13 14 14 13 13 14 14 14 15 16 15 16 16 15 15 16 16 17 19 19 18 19 19 20 20 19 20 20 20 21 21 21 22 21 20 20 19 18 18 18
14 14 14 14 13 14 14 15 14 14 14 15 15 15 15 16 16 16 17 17 18 19 19 20 20 20 20 20 20 20 20 21 22 21 21 22 22 22 21 19 19 19 19
14 14 14 14 14 15 15 15 16 16 15 15 16 16 16 16 16 16 17 18 18 18 19 20 20 20 20 20 20 20 21 21 21 22 22 22 23 23 22 21 20 20 20
14 15 14 14 14 15 15 16 16 17 17 17 17 16 16 16 16 17 17 17 18 18 18 19 19 19 19 20 20 21 21 21 21 22 22 23 23 24 23 22 22 22 21
14 15 15 15 15 16 15 15 16 16 16 16 16 16 17 17 16 17 18 17 18 18 18 18 18 18 19 19 20 20 21 21 22 23 22 23 23 23 24 23 22 23 23
13 15 15 15 15 15 15 15 16 16 16 16 16 16 16 16 16 17 17 17 18 18 17 18 18 18 18 19 19 19 20 20 21 21 22 22 23 23 23 23 22 22 21
14 14 14 14 14 14 14 15 15 15 15 15 15 16 21 18 17 17 17 17 18 18 18 18 17 17 17 17 18 18 20 20 20 21 21 21 22 22 21 20 20 20 19
14 14 14 14 14 15 14 14 15 15 15 16 16 16 20 17 17 18 17 18 18 18 18 18 18 18 17 17 18 18 19 20 19 19 20 20 20 20 19 20 20 19 19
14 14 14 14 14 16 15 15 15 15 16 16 17 18 18 18 18 18 19 19 18 19 18 19 19 19 18 18 17 17 18 18 17 18 19 19 19 19 20 20 20 19 19
15 15 15 15 15 15 15 16 16 18 18 18 18 18 19 19 19 19 20 20 21 20 20 21 20 20 19 19 17 16 16 16 16 16 19 19 19 19 19 19 19 18 18
15 15 15 15 15 16 17 17 18 18 18 19 20 20 21 21 21 21 22 22 23 23 22 22 21 21 20 20 19 18 17 17 18 17 18 18 19 20 19 19 18 18 17
15 15 15 15 16 17 17 18 19 20 21 22 22 23 23 23 23 24 24 24 24 24 23 22 22 22 21 20 19 19 20 18 17 19 18 17 18 18 18 19 19 18 17

GFSGL_con_lsi_150.txt.gz
Lid_Strength_Index
11 11 12 13 13 13 14 14 14 13 13 13 13 14 14 13 12 12 13 12 12 12 11 12 11 10 10 8 8 7 6 5 5 6 8 8 10 10 9 9 8 9 8
13 13 13 13 13 14 14 14 13 14 14 14 14 15 15 14 14 15 15 15 14 14 14 14 14 13 13 12 11 10 10 10 6 4 11 12 13 11 11 11 11 11 9
13 13 13 13 13 14 14 14 14 14 14 15 15 15 16 15 15 15 15 15 16 17 15 15 16 15 16 15 14 13 13 12 12 11 13 13 14 15 14 12 12 12 10
12 12 14 14 13 12 13 13 13 13 15 15 15 16 16 15 15 15 16 16 16 16 16 16 15 17 16 17 16 16 15 14 14 14 16 16 16 16 15 16 15 14 11
13 12 12 12 12 12 12 13 12 13 13 14 15 16 16 16 16 15 15 16 16 16 17 17 15 15 15 15 17 16 16 16 17 17 17 17 18 18 18 17 17 16 12
12 12 13 12 12 12 12 12 12 13 13 14 15 16 17 16 17 16 16 16 17 17 17 17 17 16 16 17 17 17 18 17 17 18 18 19 19 19 17 17 17 17 17
12 12 12 12 12 12 13 13 13 13 12 13 14 15 17 17 17 17 17 17 18 18 18 18 18 18 17 17 18 18 17 17 18 17 19 19 19 19 17 18 17 16 17
12 12 12 13 13 13 12 13 13 13 13 14 13 13 14 16 16 17 16 16 17 17 17 18 19 18 17 17 17 18 18 19 18 18 18 19 18 18 17 17 17 16 15
13 13 12 12 13 13 13 12 13 13 14 13 14 14 14 15 15 15 16 15 16 17 17 16 17 18 17 16 15 16 17 18 16 16 16 17 17 18 17 16 18 17 18
13 13 13 13 13 13 13 13 12 12 13 13 14 14 15 15 16 16 15 15 15 15 16 16 17 18 18 18 17 18 19 19 18 16 15 15 15 15 16 15 16 17 18
12 12 13 13 13 12 12 12 12 13 13 13 14 14 15 16 16 16 16 16 16 16 17 17 17 17 18 18 19 19 20 18 18 17 16 16 15 15 15 15 15 15 15
11 12 12 12 13 13 12 12 12 12 13 13 13 12 13 13 15 16 17 17 17 17 17 17 18 18 18 18 18 19 19 18 17 17 17 18 17 17 16 15 15 14 14
11 12 12 12 12 12 12 12 11 12 12 13 13 13 13 13 13 15 16 17 17 17 17 18 18 18 18 18 18 19 18 18 18 18 19 18 17 17 16 15 15 14 14
11 12 12 12 12 12 11 11 12 12 12 13 13 13 13 13 14 14 14 15 17 17 17 16 17 17 17 17 17 17 17 18 18 19 18 18 17 17 17 16 16 15 15
12 12 12 12 12 12 12 12 12 13 13 13 13 13 13 14 14 15 15 15 16 17 16 15 16 16 16 17 17 17 17 17 18 18 18 18 18 18 18 17 16 16 17
12 12 12 12 12 12 12 13 14 13 14 14 14 14 13 15 15 15 16 17 17 17 15 16 17 16 17 17 17 17 17 18 18 18 18 18 19 19 19 17 17 17 17
11 12 12 12 12 12 12 12 13 14 15 15 15 15 15 15 15 16 16 16 17 16 16 16 16 16 16 17 17 17 18 18 18 18 18 19 19 19 19 19 18 18 18
11 12 11 11 12 12 12 13 13 13 14 14 15 15 15 15 15 15 16 15 15 15 15 16 16 16 16 17 17 17 18 17 18 18 18 19 19 19 20 20 19 20 19
11 11 11 11 12 12 12 12 12 13 13 13 13 13 14 15 15 15 14 14 15 15 15 15 15 15 15 16 16 17 17 17 18 18 18 19 19 20 20 20 19 20 20
11 13 12 11 12 12 11 12 12 12 13 13 13 13 12 13 13 13 13 14 14 15 15 15 15 15 15 15 16 16 17 17 18 18 18 18 19 19 20 20 20 20 20
10 11 12 11 11 11 11 12 12 12 13 13 13 13 18 15 14 14 14 15 15 15 15 15 15 15 15 15 15 15 16 16 17 18 18 18 19 20 19 19 19 19 19
10 11 11 11 11 12 12 12 12 12 13 13 13 13 17 14 14 15 15 15 15 15 15 16 16 16 16 16 16 16 16 17 17 17 17 18 18 18 18 18 18 18 17
11 11 11 11 12 13 13 12 13 13 13 13 13 14 14 15 15 15 16 16 16 17 17 17 18 18 17 18 18 17 17 17 16 16 16 16 16 16 17 17 17 17 17
11 12 12 12 12 12 12 13 13 14 14 14 15 15 16 16 16 17 17 17 18 19 19 19 19 19 19 19 18 17 16 16 16 16 15 15 16 16 16 17 17 17 17
12 12 12 12 12 12 13 13 14 14 15 15 16 16 17 17 18 18 19 19 20 21 21 20 19 20 20 20 20 18 18 19 18 17 15 15 16 16 16 16 17 17 17
12 12 12 12 12 13 13 14 15 16 17 17 18 18 19 19 20 20 20 21 21 22 21 20 20 20 21 19 18 20 21 19 18 17 15 15 15 15 15 16 17 17 16